Wetterdaten: Freitag, 21.09.2018
Datum Zeit Temp. Aussen Temp. o. S. +5cm Feuchte Auss Luftdruck Regen Sonnenschein Regendauer Solar Windben Empfang
21.09.2018 00:00 19,2 C 17,8 C 17,8 C 67 % 1007,7 hPa 0,0 l/m 0 min 0 min 0 W/m 4,5 km/h (1 Bft) 100,00 %
21.09.2018 00:02 19,1 C 17,8 C 17,8 C 68 % 1007,7 hPa 0,0 l/m 0 min 0 min 0 W/m 6,8 km/h (2 Bft) 100,00 %
21.09.2018 00:04 19,1 C 17,8 C 17,8 C 68 % 1007,8 hPa 0,0 l/m 0 min 0 min 0 W/m 9,0 km/h (2 Bft) 100,00 %
21.09.2018 00:08 19,0 C 17,8 C 17,8 C 68 % 1007,7 hPa 0,0 l/m 0 min 0 min 0 W/m 6,8 km/h (2 Bft) 100,00 %
21.09.2018 00:10 18,9 C 18,3 C 17,8 C 69 % 1007,6 hPa 0,0 l/m 0 min 0 min 0 W/m 9,0 km/h (2 Bft) 97,87 %
21.09.2018 00:12 18,9 C 18,3 C 17,8 C 69 % 1007,6 hPa 0,0 l/m 0 min 0 min 0 W/m 4,5 km/h (1 Bft) 97,87 %
21.09.2018 00:14 18,9 C 18,3 C 17,8 C 69 % 1007,5 hPa 0,0 l/m 0 min 0 min 0 W/m 6,8 km/h (2 Bft) 95,74 %
21.09.2018 00:16 18,9 C 18,3 C 17,8 C 69 % 1007,6 hPa 0,0 l/m 0 min 0 min 0 W/m 6,8 km/h (2 Bft) 100,00 %
21.09.2018 00:18 18,9 C 18,3 C 17,8 C 69 % 1007,5 hPa 0,0 l/m 0 min 0 min 0 W/m 11,3 km/h (2 Bft) 97,87 %
21.09.2018 00:20 18,9 C 18,3 C 17,8 C 69 % 1007,5 hPa 0,0 l/m 0 min 0 min 0 W/m 11,3 km/h (2 Bft) 97,87 %
21.09.2018 00:22 18,9 C 18,3 C 17,8 C 69 % 1007,4 hPa 0,0 l/m 0 min 0 min 0 W/m 9,0 km/h (2 Bft) 97,83 %
21.09.2018 00:24 18,8 C 18,3 C 17,8 C 69 % 1007,5 hPa 0,0 l/m 0 min 0 min 0 W/m 9,0 km/h (2 Bft) 100,00 %
21.09.2018 00:26 18,8 C 18,3 C 17,8 C 69 % 1007,5 hPa 0,0 l/m 0 min 0 min 0 W/m 6,8 km/h (2 Bft) 97,87 %
21.09.2018 00:28 18,8 C 18,3 C 17,8 C 69 % 1007,5 hPa 0,0 l/m 0 min 0 min 0 W/m 11,3 km/h (2 Bft) 97,87 %
21.09.2018 00:30 18,8 C 18,3 C 17,8 C 69 % 1007,4 hPa 0,0 l/m 0 min 0 min 0 W/m 9,0 km/h (2 Bft) 97,87 %
21.09.2018 00:32 18,8 C 18,3 C 17,8 C 70 % 1007,4 hPa 0,0 l/m 0 min 0 min 0 W/m 9,0 km/h (2 Bft) 97,87 %
21.09.2018 00:34 18,9 C 18,3 C 17,8 C 70 % 1007,4 hPa 0,0 l/m 0 min 0 min 0 W/m 9,0 km/h (2 Bft) 97,83 %
21.09.2018 00:36 18,9 C 18,3 C 17,8 C 70 % 1007,3 hPa 0,0 l/m 0 min 0 min 0 W/m 11,3 km/h (2 Bft) 97,87 %
21.09.2018 00:38 18,9 C 18,3 C 17,8 C 70 % 1007,3 hPa 0,0 l/m 0 min 0 min 0 W/m 9,0 km/h (2 Bft) 95,74 %
21.09.2018 00:40 18,9 C 18,3 C 17,8 C 70 % 1007,3 hPa 0,0 l/m 0 min 0 min 0 W/m 9,0 km/h (2 Bft) 97,87 %
21.09.2018 00:42 18,9 C 18,3 C 17,8 C 70 % 1007,3 hPa 0,0 l/m 0 min 0 min 0 W/m 11,3 km/h (2 Bft) 95,74 %
21.09.2018 00:44 18,9 C 18,3 C 17,8 C 70 % 1007,3 hPa 0,0 l/m 0 min 0 min 0 W/m 11,3 km/h (2 Bft) 97,87 %
21.09.2018 00:46 18,9 C 18,3 C 17,8 C 70 % 1007,2 hPa 0,0 l/m 0 min 0 min 0 W/m 9,0 km/h (2 Bft) 97,83 %
21.09.2018 00:48 18,9 C 18,3 C 17,8 C 70 % 1007,2 hPa 0,0 l/m 0 min 0 min 0 W/m 11,3 km/h (2 Bft) 97,87 %
21.09.2018 00:50 18,9 C 18,3 C 17,8 C 70 % 1007,2 hPa 0,0 l/m 0 min 0 min 0 W/m 6,8 km/h (2 Bft) 97,87 %
21.09.2018 00:52 18,9 C 18,3 C 17,8 C 70 % 1007,2 hPa 0,0 l/m 0 min 0 min 0 W/m 6,8 km/h (2 Bft) 97,87 %
21.09.2018 00:54 19,0 C 18,3 C 17,8 C 70 % 1007,0 hPa 0,0 l/m 0 min 0 min 0 W/m 13,5 km/h (3 Bft) 97,87 %
21.09.2018 00:56 19,0 C 18,3 C 17,8 C 70 % 1007,0 hPa 0,0 l/m 0 min 0 min 0 W/m 6,8 km/h (2 Bft) 95,65 %
21.09.2018 00:58 19,0 C 18,3 C 17,8 C 70 % 1007,0 hPa 0,0 l/m 0 min 0 min 0 W/m 6,8 km/h (2 Bft) 93,62 %
21.09.2018 01:00 19,0 C 18,3 C 17,8 C 70 % 1007,0 hPa 0,0 l/m 0 min 0 min 0 W/m 6,8 km/h (2 Bft) 97,87 %
21.09.2018 01:02 19,0 C 18,3 C 17,8 C 70 % 1007,0 hPa 0,0 l/m 0 min 0 min 0 W/m 9,0 km/h (2 Bft) 95,83 %
21.09.2018 01:04 19,0 C 18,3 C 17,8 C 70 % 1006,9 hPa 0,0 l/m 0 min 0 min 0 W/m 9,0 km/h (2 Bft) 95,74 %
21.09.2018 01:06 19,1 C 18,3 C 17,8 C 70 % 1006,9 hPa 0,0 l/m 0 min 0 min 0 W/m 6,8 km/h (2 Bft) 95,74 %
21.09.2018 01:08 19,1 C 18,3 C 17,8 C 70 % 1006,9 hPa 0,0 l/m 0 min 0 min 0 W/m 6,8 km/h (2 Bft) 95,74 %
21.09.2018 01:10 19,1 C 18,9 C 17,8 C 70 % 1006,9 hPa 0,0 l/m 0 min 0 min 0 W/m 11,3 km/h (2 Bft) 95,65 %
21.09.2018 01:12 19,1 C 18,9 C 17,8 C 70 % 1006,9 hPa 0,0 l/m 0 min 0 min 0 W/m 6,8 km/h (2 Bft) 95,74 %
21.09.2018 01:14 19,1 C 18,3 C 17,8 C 71 % 1006,9 hPa 0,0 l/m 0 min 0 min 0 W/m 9,0 km/h (2 Bft) 95,74 %
21.09.2018 01:16 19,1 C 18,3 C 17,8 C 71 % 1006,9 hPa 0,0 l/m 0 min 0 min 0 W/m 9,0 km/h (2 Bft) 97,87 %
21.09.2018 01:18 19,1 C 18,3 C 17,8 C 71 % 1006,8 hPa 0,0 l/m 0 min 0 min 0 W/m 9,0 km/h (2 Bft) 97,87 %
21.09.2018 01:20 19,1 C 18,3 C 17,8 C 71 % 1006,8 hPa 0,0 l/m 0 min 0 min 0 W/m 6,8 km/h (2 Bft) 97,83 %
21.09.2018 01:22 19,1 C 18,3 C 17,8 C 70 % 1006,8 hPa 0,0 l/m 0 min 0 min 0 W/m 9,0 km/h (2 Bft) 98,15 %
21.09.2018 01:24 19,1 C 18,3 C 17,8 C 71 % 1006,8 hPa 0,0 l/m 0 min 0 min 0 W/m 11,3 km/h (2 Bft) 97,14 %
21.09.2018 01:26 19,1 C 18,3 C 17,8 C 71 % 1006,8 hPa 0,0 l/m 0 min 0 min 0 W/m 9,0 km/h (2 Bft) 97,87 %
21.09.2018 01:28 19,1 C 18,3 C 17,8 C 71 % 1006,8 hPa 0,0 l/m 0 min 0 min 0 W/m 6,8 km/h (2 Bft) 95,65 %
21.09.2018 01:30 19,2 C 18,3 C 17,8 C 71 % 1006,8 hPa 0,0 l/m 0 min 0 min 0 W/m 4,5 km/h (1 Bft) 97,87 %
21.09.2018 01:32 19,2 C 18,3 C 17,8 C 71 % 1006,7 hPa 0,0 l/m 0 min 0 min 0 W/m 6,8 km/h (2 Bft) 97,62 %
21.09.2018 01:34 19,2 C 18,3 C 17,8 C 71 % 1006,6 hPa 0,0 l/m 0 min 0 min 0 W/m 6,8 km/h (2 Bft) 95,74 %
21.09.2018 01:36 19,1 C 18,3 C 17,8 C 71 % 1006,7 hPa 0,0 l/m 0 min 0 min 0 W/m 6,8 km/h (2 Bft) 96,23 %
21.09.2018 01:38 19,1 C 18,3 C 17,8 C 71 % 1006,7 hPa 0,0 l/m 0 min 0 min 0 W/m 6,8 km/h (2 Bft) 97,87 %
21.09.2018 01:40 19,1 C 18,3 C 17,8 C 71 % 1006,7 hPa 0,0 l/m 0 min 0 min 0 W/m 6,8 km/h (2 Bft) 97,83 %
21.09.2018 01:42 19,1 C 18,3 C 17,8 C 71 % 1006,6 hPa 0,0 l/m 0 min 0 min 0 W/m 6,8 km/h (2 Bft) 97,87 %
21.09.2018 01:44 19,1 C 18,3 C 17,8 C 71 % 1006,6 hPa 0,0 l/m 0 min 0 min 0 W/m 6,8 km/h (2 Bft) 100,00 %
21.09.2018 01:46 19,1 C 18,3 C 17,8 C 71 % 1006,5 hPa 0,0 l/m 0 min 0 min 0 W/m 2,3 km/h (1 Bft) 100,00 %
21.09.2018 01:48 19,1 C 18,3 C 17,8 C 71 % 1006,5 hPa 0,0 l/m 0 min 0 min 0 W/m 4,5 km/h (1 Bft) 100,00 %
21.09.2018 01:50 19,1 C 18,3 C 17,8 C 71 % 1006,5 hPa 0,0 l/m 0 min 0 min 0 W/m 9,0 km/h (2 Bft) 100,00 %
21.09.2018 01:52 19,1 C 18,3 C 17,8 C 71 % 1006,5 hPa 0,0 l/m 0 min 0 min 0 W/m 11,3 km/h (2 Bft) 98,31 %
21.09.2018 01:54 19,1 C 18,3 C 17,8 C 71 % 1006,4 hPa 0,0 l/m 0 min 0 min 0 W/m 6,8 km/h (2 Bft) 100,00 %
21.09.2018 01:56 19,1 C 18,3 C 17,8 C 71 % 1006,4 hPa 0,0 l/m 0 min 0 min 0 W/m 6,8 km/h (2 Bft) 100,00 %
21.09.2018 01:58 19,1 C 18,3 C 17,8 C 71 % 1006,5 hPa 0,0 l/m 0 min 0 min 0 W/m 6,8 km/h (2 Bft) 100,00 %
21.09.2018 02:00 19,1 C 18,3 C 17,8 C 71 % 1006,4 hPa 0,0 l/m 0 min 0 min 0 W/m 15,8 km/h (3 Bft) 100,00 %
21.09.2018 02:02 19,1 C 18,3 C 17,8 C 71 % 1006,4 hPa 0,0 l/m 0 min 0 min 0 W/m 9,0 km/h (2 Bft) 100,00 %
21.09.2018 02:04 19,1 C 18,3 C 17,8 C 71 % 1006,3 hPa 0,0 l/m 0 min 0 min 0 W/m 9,0 km/h (2 Bft) 95,74 %
21.09.2018 02:06 19,1 C 18,3 C 17,8 C 71 % 1006,3 hPa 0,0 l/m 0 min 0 min 0 W/m 6,8 km/h (2 Bft) 97,87 %
21.09.2018 02:08 19,1 C 18,3 C 17,8 C 71 % 1006,3 hPa 0,0 l/m 0 min 0 min 0 W/m 9,0 km/h (2 Bft) 97,87 %
21.09.2018 02:10 19,1 C 18,3 C 17,8 C 71 % 1006,2 hPa 0,0 l/m 0 min 0 min 0 W/m 11,3 km/h (2 Bft) 97,83 %
21.09.2018 02:12 19,1 C 18,3 C 17,8 C 72 % 1006,3 hPa 0,0 l/m 0 min 0 min 0 W/m 6,8 km/h (2 Bft) 97,87 %
21.09.2018 02:14 19,1 C 18,3 C 17,8 C 72 % 1006,2 hPa 0,0 l/m 0 min 0 min 0 W/m 6,8 km/h (2 Bft) 97,87 %
21.09.2018 02:16 19,1 C 18,3 C 17,8 C 72 % 1006,3 hPa 0,0 l/m 0 min 0 min 0 W/m 6,8 km/h (2 Bft) 97,87 %
21.09.2018 02:18 19,1 C 18,3 C 17,8 C 72 % 1006,2 hPa 0,0 l/m 0 min 0 min 0 W/m 4,5 km/h (1 Bft) 97,87 %
21.09.2018 02:20 19,1 C 18,3 C 17,8 C 72 % 1006,2 hPa 0,0 l/m 0 min 0 min 0 W/m 2,3 km/h (1 Bft) 96,55 %
21.09.2018 02:22 19,0 C 18,3 C 17,8 C 72 % 1006,1 hPa 0,0 l/m 0 min 0 min 0 W/m 4,5 km/h (1 Bft) 97,14 %
21.09.2018 02:24 19,0 C 18,3 C 17,8 C 72 % 1006,1 hPa 0,0 l/m 0 min 0 min 0 W/m 4,5 km/h (1 Bft) 97,87 %
21.09.2018 02:26 19,0 C 18,3 C 17,8 C 72 % 1006,1 hPa 0,0 l/m 0 min 0 min 0 W/m 4,5 km/h (1 Bft) 97,87 %
21.09.2018 02:28 19,0 C 18,3 C 17,8 C 72 % 1006,1 hPa 0,0 l/m 0 min 0 min 0 W/m 4,5 km/h (1 Bft) 97,87 %
21.09.2018 02:30 19,0 C 18,3 C 17,8 C 72 % 1006,1 hPa 0,0 l/m 0 min 0 min 0 W/m 4,5 km/h (1 Bft) 95,74 %
21.09.2018 02:32 19,0 C 18,3 C 17,8 C 72 % 1006,1 hPa 0,0 l/m 0 min 0 min 0 W/m 9,0 km/h (2 Bft) 97,92 %
21.09.2018 02:34 19,0 C 18,3 C 17,8 C 72 % 1006,0 hPa 0,0 l/m 0 min 0 min 0 W/m 4,5 km/h (1 Bft) 97,83 %
21.09.2018 02:36 18,9 C 18,3 C 17,8 C 72 % 1006,1 hPa 0,0 l/m 0 min 0 min 0 W/m 4,5 km/h (1 Bft) 97,87 %
21.09.2018 02:38 18,9 C 17,8 C 17,8 C 72 % 1006,0 hPa 0,0 l/m 0 min 0 min 0 W/m 4,5 km/h (1 Bft) 97,87 %
21.09.2018 02:40 18,9 C 17,8 C 17,8 C 72 % 1006,1 hPa 0,0 l/m 0 min 0 min 0 W/m 6,8 km/h (2 Bft) 97,87 %
21.09.2018 02:42 18,9 C 17,8 C 17,2 C 72 % 1006,0 hPa 0,0 l/m 0 min 0 min 0 W/m 4,5 km/h (1 Bft) 95,74 %
21.09.2018 02:44 18,9 C 17,8 C 17,2 C 72 % 1005,9 hPa 0,0 l/m 0 min 0 min 0 W/m 4,5 km/h (1 Bft) 97,83 %
21.09.2018 02:46 18,9 C 17,8 C 17,2 C 73 % 1005,8 hPa 0,0 l/m 0 min 0 min 0 W/m 6,8 km/h (2 Bft) 95,74 %
21.09.2018 02:48 18,9 C 17,8 C 17,2 C 73 % 1005,8 hPa 0,0 l/m 0 min 0 min 0 W/m 6,8 km/h (2 Bft) 97,87 %
21.09.2018 02:50 18,9 C 17,8 C 17,2 C 73 % 1005,7 hPa 0,0 l/m 0 min 0 min 0 W/m 13,5 km/h (3 Bft) 98,31 %
21.09.2018 02:52 18,9 C 17,8 C 17,2 C 73 % 1005,7 hPa 0,0 l/m 0 min 0 min 0 W/m 6,8 km/h (2 Bft) 97,14 %
21.09.2018 02:54 18,9 C 17,8 C 17,2 C 73 % 1005,6 hPa 0,0 l/m 0 min 0 min 0 W/m 9,0 km/h (2 Bft) 97,87 %
21.09.2018 02:56 18,8 C 17,8 C 17,2 C 73 % 1005,6 hPa 0,0 l/m 0 min 0 min 0 W/m 4,5 km/h (1 Bft) 95,65 %
21.09.2018 02:58 18,8 C 17,8 C 17,2 C 73 % 1005,6 hPa 0,0 l/m 0 min 0 min 0 W/m 6,8 km/h (2 Bft) 95,74 %
21.09.2018 03:00 18,8 C 17,8 C 17,2 C 73 % 1005,7 hPa 0,0 l/m 0 min 0 min 0 W/m 6,8 km/h (2 Bft) 97,87 %
21.09.2018 03:02 18,8 C 17,8 C 17,2 C 73 % 1005,6 hPa 0,0 l/m 0 min 0 min 0 W/m 2,3 km/h (1 Bft) 97,96 %
21.09.2018 03:04 18,8 C 17,8 C 17,2 C 73 % 1005,6 hPa 0,0 l/m 0 min 0 min 0 W/m 6,8 km/h (2 Bft) 97,87 %
21.09.2018 03:06 18,7 C 17,8 C 17,2 C 73 % 1005,5 hPa 0,0 l/m 0 min 0 min 0 W/m 9,0 km/h (2 Bft) 97,87 %
21.09.2018 03:08 18,7 C 17,8 C 17,2 C 73 % 1005,5 hPa 0,0 l/m 0 min 0 min 0 W/m 6,8 km/h (2 Bft) 97,83 %
21.09.2018 03:10 18,7 C 17,8 C 17,2 C 73 % 1005,4 hPa 0,0 l/m 0 min 0 min 0 W/m 4,5 km/h (1 Bft) 97,87 %
21.09.2018 03:12 18,7 C 17,8 C 17,2 C 74 % 1005,3 hPa 0,0 l/m 0 min 0 min 0 W/m 6,8 km/h (2 Bft) 97,87 %
21.09.2018 03:14 18,7 C 17,8 C 17,2 C 74 % 1005,3 hPa 0,0 l/m 0 min 0 min 0 W/m 11,3 km/h (2 Bft) 95,74 %
21.09.2018 03:16 18,7 C 17,8 C 17,2 C 74 % 1005,2 hPa 0,0 l/m 0 min 0 min 0 W/m 11,3 km/h (2 Bft) 97,87 %
21.09.2018 03:18 18,7 C 17,8 C 17,2 C 74 % 1005,2 hPa 0,0 l/m 0 min 0 min 0 W/m 9,0 km/h (2 Bft) 97,87 %
21.09.2018 03:20 18,6 C 17,8 C 17,2 C 74 % 1005,1 hPa 0,0 l/m 0 min 0 min 0 W/m 9,0 km/h (2 Bft) 97,83 %
21.09.2018 03:22 18,6 C 17,8 C 17,2 C 74 % 1005,1 hPa 0,0 l/m 0 min 0 min 0 W/m 6,8 km/h (2 Bft) 95,74 %
21.09.2018 03:24 18,6 C 17,8 C 17,2 C 74 % 1005,1 hPa 0,0 l/m 0 min 0 min 0 W/m 11,3 km/h (2 Bft) 97,87 %
21.09.2018 03:26 18,6 C 17,8 C 17,2 C 74 % 1005,1 hPa 0,0 l/m 0 min 0 min 0 W/m 11,3 km/h (2 Bft) 97,87 %
21.09.2018 03:28 18,6 C 17,8 C 17,2 C 74 % 1005,0 hPa 0,0 l/m 0 min 0 min 0 W/m 6,8 km/h (2 Bft) 97,87 %
21.09.2018 03:30 18,6 C 17,8 C 17,2 C 74 % 1004,9 hPa 0,0 l/m 0 min 0 min 0 W/m 11,3 km/h (2 Bft) 97,83 %
21.09.2018 03:32 18,6 C 17,8 C 17,2 C 74 % 1004,9 hPa 0,0 l/m 0 min 0 min 0 W/m 6,8 km/h (2 Bft) 97,96 %
21.09.2018 03:34 18,6 C 17,8 C 17,2 C 74 % 1004,9 hPa 0,0 l/m 0 min 0 min 0 W/m 9,0 km/h (2 Bft) 97,87 %
21.09.2018 03:36 18,6 C 17,8 C 17,2 C 74 % 1004,9 hPa 0,0 l/m 0 min 0 min 0 W/m 6,8 km/h (2 Bft) 97,87 %
21.09.2018 03:38 18,6 C 17,8 C 17,2 C 74 % 1004,8 hPa 0,0 l/m 0 min 0 min 0 W/m 2,3 km/h (1 Bft) 97,87 %
21.09.2018 03:40 18,6 C 17,8 C 17,2 C 74 % 1004,9 hPa 0,0 l/m 0 min 0 min 0 W/m 6,8 km/h (2 Bft) 95,74 %
21.09.2018 03:42 18,6 C 17,8 C 17,2 C 74 % 1004,9 hPa 0,0 l/m 0 min 0 min 0 W/m 6,8 km/h (2 Bft) 95,65 %
21.09.2018 03:44 18,6 C 17,8 C 17,2 C 75 % 1004,9 hPa 0,0 l/m 0 min 0 min 0 W/m 6,8 km/h (2 Bft) 93,62 %
21.09.2018 03:46 18,6 C 17,8 C 17,2 C 75 % 1004,8 hPa 0,0 l/m 0 min 0 min 0 W/m 6,8 km/h (2 Bft) 95,74 %
21.09.2018 03:48 18,6 C 17,8 C 17,2 C 75 % 1004,8 hPa 0,0 l/m 0 min 0 min 0 W/m 6,8 km/h (2 Bft) 95,74 %
21.09.2018 03:50 18,6 C 17,8 C 17,2 C 75 % 1004,8 hPa 0,0 l/m 0 min 0 min 0 W/m 2,3 km/h (1 Bft) 95,74 %
21.09.2018 03:52 18,5 C 17,8 C 17,2 C 75 % 1004,7 hPa 0,0 l/m 0 min 0 min 0 W/m 6,8 km/h (2 Bft) 91,49 %
21.09.2018 03:54 18,5 C 17,8 C 17,2 C 75 % 1004,7 hPa 0,0 l/m 0 min 0 min 0 W/m 6,8 km/h (2 Bft) 95,65 %
21.09.2018 03:56 18,5 C 17,8 C 17,2 C 75 % 1004,6 hPa 0,0 l/m 0 min 0 min 0 W/m 6,8 km/h (2 Bft) 93,62 %
21.09.2018 03:58 18,5 C 17,2 C 17,2 C 75 % 1004,7 hPa 0,0 l/m 0 min 0 min 0 W/m 4,5 km/h (1 Bft) 95,74 %
21.09.2018 04:00 18,5 C 17,2 C 17,2 C 75 % 1004,6 hPa 0,0 l/m 0 min 0 min 0 W/m 4,5 km/h (1 Bft) 95,74 %
21.09.2018 04:02 18,4 C 17,2 C 17,2 C 75 % 1004,6 hPa 0,0 l/m 0 min 0 min 0 W/m 6,8 km/h (2 Bft) 100,00 %
21.09.2018 04:04 18,4 C 17,2 C 17,2 C 75 % 1004,4 hPa 0,0 l/m 0 min 0 min 0 W/m 4,5 km/h (1 Bft) 100,00 %
21.09.2018 04:06 18,4 C 17,2 C 17,2 C 75 % 1004,4 hPa 0,0 l/m 0 min 0 min 0 W/m 4,5 km/h (1 Bft) 95,65 %
21.09.2018 04:08 18,4 C 17,2 C 17,2 C 75 % 1004,4 hPa 0,0 l/m 0 min 0 min 0 W/m 2,3 km/h (1 Bft) 72,34 %
21.09.2018 04:10 18,4 C 17,2 C 17,2 C 75 % 1004,4 hPa 0,0 l/m 0 min 0 min 0 W/m 9,0 km/h (2 Bft) 11,11 %
21.09.2018 04:12 18,4 C 17,2 C 17,2 C 75 % 1004,3 hPa 0,0 l/m 0 min 0 min 0 W/m 6,8 km/h (2 Bft) 100,00 %
21.09.2018 04:14 18,4 C 17,2 C 17,2 C 75 % 1004,3 hPa 0,0 l/m 0 min 0 min 0 W/m 4,5 km/h (1 Bft) 97,87 %
21.09.2018 04:16 18,3 C 17,2 C 17,2 C 75 % 1004,2 hPa 0,0 l/m 0 min 0 min 0 W/m 6,8 km/h (2 Bft) 97,87 %
21.09.2018 04:18 18,3 C 17,2 C 17,2 C 75 % 1004,2 hPa 0,0 l/m 0 min 0 min 0 W/m 4,5 km/h (1 Bft) 97,87 %
21.09.2018 04:20 18,3 C 17,2 C 16,7 C 75 % 1004,2 hPa 0,0 l/m 0 min 0 min 0 W/m 4,5 km/h (1 Bft) 97,87 %
21.09.2018 04:22 18,3 C 17,8 C 16,7 C 75 % 1004,1 hPa 0,0 l/m 0 min 0 min 0 W/m 4,5 km/h (1 Bft) 97,87 %
21.09.2018 04:24 18,3 C 17,8 C 17,2 C 75 % 1004,1 hPa 0,0 l/m 0 min 0 min 0 W/m 11,3 km/h (2 Bft) 97,83 %
21.09.2018 04:26 18,3 C 17,8 C 17,2 C 75 % 1004,1 hPa 0,0 l/m 0 min 0 min 0 W/m 6,8 km/h (2 Bft) 100,00 %
21.09.2018 04:28 18,3 C 17,8 C 17,2 C 75 % 1003,9 hPa 0,0 l/m 0 min 0 min 0 W/m 6,8 km/h (2 Bft) 100,00 %
21.09.2018 04:30 18,3 C 17,8 C 17,2 C 75 % 1003,9 hPa 0,0 l/m 0 min 0 min 0 W/m 9,0 km/h (2 Bft) 100,00 %
21.09.2018 04:32 18,3 C 17,8 C 17,2 C 75 % 1003,8 hPa 0,0 l/m 0 min 0 min 0 W/m 9,0 km/h (2 Bft) 97,87 %
21.09.2018 04:34 18,3 C 17,8 C 17,2 C 75 % 1003,8 hPa 0,0 l/m 0 min 0 min 0 W/m 6,8 km/h (2 Bft) 100,00 %
21.09.2018 04:36 18,3 C 17,8 C 17,2 C 75 % 1003,7 hPa 0,0 l/m 0 min 0 min 0 W/m 6,8 km/h (2 Bft) 100,00 %
21.09.2018 04:38 18,3 C 17,8 C 17,2 C 75 % 1003,7 hPa 0,0 l/m 0 min 0 min 0 W/m 4,5 km/h (1 Bft) 100,00 %
21.09.2018 04:40 18,3 C 17,8 C 17,2 C 75 % 1003,7 hPa 0,0 l/m 0 min 0 min 0 W/m 6,8 km/h (2 Bft) 100,00 %
21.09.2018 04:42 18,3 C 17,8 C 17,2 C 75 % 1003,7 hPa 0,0 l/m 0 min 0 min 0 W/m 9,0 km/h (2 Bft) 100,00 %
21.09.2018 04:44 18,3 C 18,3 C 17,2 C 75 % 1003,6 hPa 0,0 l/m 0 min 0 min 0 W/m 6,8 km/h (2 Bft) 100,00 %
21.09.2018 04:46 18,3 C 18,3 C 17,2 C 75 % 1003,6 hPa 0,0 l/m 0 min 0 min 0 W/m 6,8 km/h (2 Bft) 100,00 %
21.09.2018 04:48 18,3 C 18,3 C 17,2 C 75 % 1003,7 hPa 0,0 l/m 0 min 0 min 0 W/m 6,8 km/h (2 Bft) 100,00 %
21.09.2018 04:50 18,3 C 18,3 C 17,2 C 75 % 1003,5 hPa 0,0 l/m 0 min 0 min 0 W/m 9,0 km/h (2 Bft) 100,00 %
21.09.2018 04:52 18,4 C 18,3 C 17,2 C 75 % 1003,5 hPa 0,0 l/m 0 min 0 min 0 W/m 6,8 km/h (2 Bft) 100,00 %
21.09.2018 04:54 18,4 C 18,9 C 17,8 C 75 % 1003,4 hPa 0,0 l/m 0 min 0 min 0 W/m 9,0 km/h (2 Bft) 100,00 %
21.09.2018 04:56 18,4 C 18,9 C 17,8 C 75 % 1003,3 hPa 0,0 l/m 0 min 0 min 0 W/m 6,8 km/h (2 Bft) 100,00 %
21.09.2018 04:58 18,5 C 18,9 C 17,8 C 74 % 1003,2 hPa 0,0 l/m 0 min 0 min 0 W/m 6,8 km/h (2 Bft) 100,00 %
21.09.2018 05:00 18,6 C 18,9 C 17,8 C 74 % 1003,1 hPa 0,0 l/m 0 min 0 min 0 W/m 11,3 km/h (2 Bft) 100,00 %
21.09.2018 05:02 18,6 C 18,9 C 17,8 C 74 % 1003,2 hPa 0,0 l/m 0 min 0 min 0 W/m 9,0 km/h (2 Bft) 97,87 %
21.09.2018 05:04 18,7 C 18,9 C 17,8 C 74 % 1003,0 hPa 0,0 l/m 0 min 0 min 0 W/m 9,0 km/h (2 Bft) 100,00 %
21.09.2018 05:06 18,7 C 18,9 C 17,8 C 74 % 1003,0 hPa 0,0 l/m 0 min 0 min 0 W/m 6,8 km/h (2 Bft) 100,00 %
21.09.2018 05:08 18,8 C 18,9 C 17,8 C 73 % 1002,9 hPa 0,0 l/m 0 min 0 min 0 W/m 9,0 km/h (2 Bft) 100,00 %
21.09.2018 05:10 18,8 C 18,9 C 17,8 C 73 % 1002,9 hPa 0,0 l/m 0 min 0 min 0 W/m 9,0 km/h (2 Bft) 100,00 %
21.09.2018 05:12 18,9 C 18,9 C 17,8 C 73 % 1002,9 hPa 0,0 l/m 0 min 0 min 0 W/m 11,3 km/h (2 Bft) 97,87 %
21.09.2018 05:14 18,9 C 18,9 C 18,3 C 73 % 1002,7 hPa 0,0 l/m 0 min 0 min 0 W/m 9,0 km/h (2 Bft) 100,00 %
21.09.2018 05:16 19,0 C 19,4 C 17,8 C 73 % 1002,8 hPa 0,0 l/m 0 min 0 min 0 W/m 11,3 km/h (2 Bft) 97,87 %
21.09.2018 05:18 19,1 C 19,4 C 17,8 C 72 % 1002,7 hPa 0,0 l/m 0 min 0 min 0 W/m 6,8 km/h (2 Bft) 97,87 %
21.09.2018 05:20 19,1 C 18,9 C 17,8 C 72 % 1002,7 hPa 0,0 l/m 0 min 0 min 0 W/m 4,5 km/h (1 Bft) 100,00 %
21.09.2018 05:22 19,2 C 18,9 C 17,8 C 72 % 1002,7 hPa 0,0 l/m 0 min 0 min 0 W/m 6,8 km/h (2 Bft) 100,00 %
21.09.2018 05:24 19,2 C 19,4 C 18,3 C 72 % 1002,6 hPa 0,0 l/m 0 min 0 min 0 W/m 11,3 km/h (2 Bft) 97,87 %
21.09.2018 05:26 19,3 C 19,4 C 18,3 C 72 % 1002,6 hPa 0,0 l/m 0 min 0 min 0 W/m 6,8 km/h (2 Bft) 100,00 %
21.09.2018 05:28 19,3 C 19,4 C 18,3 C 72 % 1002,6 hPa 0,0 l/m 0 min 0 min 0 W/m 6,8 km/h (2 Bft) 97,87 %
21.09.2018 05:30 19,4 C 19,4 C 18,3 C 72 % 1002,5 hPa 0,0 l/m 0 min 0 min 0 W/m 6,8 km/h (2 Bft) 100,00 %
21.09.2018 05:32 19,4 C 20,0 C 18,3 C 71 % 1002,5 hPa 0,0 l/m 0 min 0 min 0 W/m 13,5 km/h (3 Bft) 100,00 %
21.09.2018 05:34 19,5 C 19,4 C 18,9 C 71 % 1002,6 hPa 0,0 l/m 0 min 0 min 0 W/m 6,8 km/h (2 Bft) 97,87 %
21.09.2018 05:36 19,6 C 20,0 C 18,9 C 71 % 1002,4 hPa 0,0 l/m 0 min 0 min 0 W/m 6,8 km/h (2 Bft) 97,87 %
21.09.2018 05:40 19,7 C 20,0 C 18,9 C 71 % 1002,4 hPa 0,0 l/m 0 min 0 min 0 W/m 9,0 km/h (2 Bft) 100,00 %
21.09.2018 05:42 19,7 C 19,4 C 18,9 C 71 % 1002,4 hPa 0,0 l/m 0 min 0 min 0 W/m 6,8 km/h (2 Bft) 97,30 %
21.09.2018 05:44 19,8 C 20,0 C 18,9 C 70 % 1002,4 hPa 0,0 l/m 0 min 0 min 0 W/m 6,8 km/h (2 Bft) 97,96 %
21.09.2018 05:46 19,8 C 19,4 C 18,9 C 70 % 1002,3 hPa 0,0 l/m 0 min 0 min 0 W/m 6,8 km/h (2 Bft) 100,00 %
21.09.2018 05:48 19,9 C 19,4 C 18,9 C 70 % 1002,2 hPa 0,0 l/m 0 min 0 min 0 W/m 9,0 km/h (2 Bft) 97,92 %
21.09.2018 05:50 19,9 C 19,4 C 18,9 C 70 % 1002,2 hPa 0,0 l/m 0 min 0 min 0 W/m 9,0 km/h (2 Bft) 97,87 %
21.09.2018 05:52 19,9 C 19,4 C 18,9 C 70 % 1002,3 hPa 0,0 l/m 0 min 0 min 0 W/m 9,0 km/h (2 Bft) 95,83 %
21.09.2018 05:54 20,0 C 19,4 C 18,9 C 70 % 1002,2 hPa 0,0 l/m 0 min 0 min 0 W/m 9,0 km/h (2 Bft) 97,92 %
21.09.2018 05:56 20,1 C 20,0 C 18,9 C 70 % 1002,2 hPa 0,0 l/m 0 min 0 min 0 W/m 6,8 km/h (2 Bft) 97,92 %
21.09.2018 05:58 20,1 C 20,0 C 18,9 C 70 % 1002,2 hPa 0,0 l/m 0 min 0 min 0 W/m 13,5 km/h (3 Bft) 97,87 %
21.09.2018 06:00 20,1 C 20,0 C 18,9 C 70 % 1002,2 hPa 0,0 l/m 0 min 0 min 0 W/m 6,8 km/h (2 Bft) 97,37 %
21.09.2018 06:02 20,2 C 20,0 C 18,9 C 70 % 1002,1 hPa 0,0 l/m 0 min 0 min 0 W/m 9,0 km/h (2 Bft) 96,08 %
21.09.2018 06:04 20,2 C 20,0 C 19,4 C 70 % 1002,1 hPa 0,0 l/m 0 min 0 min 0 W/m 9,0 km/h (2 Bft) 98,00 %
21.09.2018 06:06 20,3 C 20,0 C 19,4 C 70 % 1002,1 hPa 0,0 l/m 0 min 0 min 0 W/m 9,0 km/h (2 Bft) 93,75 %
21.09.2018 06:08 20,3 C 20,0 C 19,4 C 70 % 1002,1 hPa 0,0 l/m 0 min 0 min 0 W/m 9,0 km/h (2 Bft) 97,62 %
21.09.2018 06:10 20,4 C 20,0 C 19,4 C 69 % 1002,1 hPa 0,0 l/m 0 min 0 min 0 W/m 9,0 km/h (2 Bft) 94,00 %
21.09.2018 06:12 20,4 C 20,0 C 19,4 C 69 % 1002,1 hPa 0,0 l/m 0 min 0 min 0 W/m 6,8 km/h (2 Bft) 98,00 %
21.09.2018 06:14 20,4 C 20,0 C 19,4 C 69 % 1002,1 hPa 0,0 l/m 0 min 0 min 0 W/m 6,8 km/h (2 Bft) 95,92 %
21.09.2018 06:16 20,5 C 20,0 C 19,4 C 69 % 1002,1 hPa 0,0 l/m 0 min 0 min 0 W/m 11,3 km/h (2 Bft) 91,67 %
21.09.2018 06:18 20,5 C 20,0 C 19,4 C 69 % 1002,0 hPa 0,0 l/m 0 min 0 min 0 W/m 15,8 km/h (3 Bft) 95,83 %
21.09.2018 06:20 20,6 C 20,6 C 19,4 C 69 % 1002,0 hPa 0,0 l/m 0 min 0 min 0 W/m 9,0 km/h (2 Bft) 94,44 %
21.09.2018 06:22 20,6 C 20,6 C 19,4 C 69 % 1002,0 hPa 0,0 l/m 0 min 0 min 0 W/m 11,3 km/h (2 Bft) 92,68 %
21.09.2018 06:24 20,7 C 20,6 C 19,4 C 69 % 1002,0 hPa 0,0 l/m 0 min 0 min 0 W/m 11,3 km/h (2 Bft) 93,75 %
21.09.2018 06:26 20,8 C 20,6 C 19,4 C 69 % 1002,0 hPa 0,0 l/m 0 min 0 min 0 W/m 13,5 km/h (3 Bft) 92,73 %
21.09.2018 06:28 20,8 C 20,6 C 19,4 C 69 % 1002,0 hPa 0,0 l/m 0 min 0 min 0 W/m 9,0 km/h (2 Bft) 94,74 %
21.09.2018 06:30 20,9 C 20,6 C 19,4 C 69 % 1002,0 hPa 0,0 l/m 0 min 0 min 0 W/m 11,3 km/h (2 Bft) 93,62 %
21.09.2018 06:32 20,9 C 20,6 C 20,0 C 68 % 1001,9 hPa 0,0 l/m 0 min 0 min 0 W/m 22,5 km/h (4 Bft) 95,92 %
21.09.2018 06:34 21,0 C 20,6 C 20,0 C 68 % 1001,8 hPa 0,0 l/m 0 min 0 min 0 W/m 11,3 km/h (2 Bft) 95,83 %
21.09.2018 06:36 21,1 C 20,6 C 20,0 C 68 % 1001,9 hPa 0,0 l/m 0 min 0 min 0 W/m 11,3 km/h (2 Bft) 93,75 %
21.09.2018 06:38 21,1 C 20,6 C 20,0 C 68 % 1001,8 hPa 0,0 l/m 0 min 0 min 0 W/m 13,5 km/h (3 Bft) 94,44 %
21.09.2018 06:40 21,2 C 20,6 C 20,0 C 68 % 1001,9 hPa 0,0 l/m 0 min 0 min 0 W/m 11,3 km/h (2 Bft) 96,43 %
21.09.2018 06:42 21,2 C 20,6 C 20,0 C 68 % 1001,8 hPa 0,0 l/m 0 min 0 min 0 W/m 11,3 km/h (2 Bft) 95,92 %
21.09.2018 06:44 21,2 C 20,6 C 20,0 C 68 % 1001,9 hPa 0,0 l/m 0 min 0 min 0 W/m 9,0 km/h (2 Bft) 94,00 %
21.09.2018 06:46 21,3 C 20,6 C 20,0 C 68 % 1002,0 hPa 0,0 l/m 0 min 0 min 0 W/m 15,8 km/h (3 Bft) 91,89 %
21.09.2018 06:48 21,3 C 20,6 C 20,0 C 68 % 1002,0 hPa 0,0 l/m 0 min 0 min 0 W/m 13,5 km/h (3 Bft) 95,74 %
21.09.2018 06:50 21,3 C 20,6 C 20,0 C 68 % 1002,0 hPa 0,0 l/m 0 min 0 min 0 W/m 15,8 km/h (3 Bft) 96,30 %
21.09.2018 06:52 21,3 C 20,6 C 20,0 C 68 % 1002,0 hPa 0,0 l/m 0 min 0 min 0 W/m 11,3 km/h (2 Bft) 96,00 %
21.09.2018 06:54 21,3 C 20,6 C 20,0 C 67 % 1001,9 hPa 0,0 l/m 0 min 0 min 0 W/m 13,5 km/h (3 Bft) 93,62 %
21.09.2018 06:56 21,4 C 20,6 C 20,0 C 67 % 1001,8 hPa 0,0 l/m 0 min 0 min 0 W/m 11,3 km/h (2 Bft) 97,37 %
21.09.2018 06:58 21,4 C 20,6 C 20,0 C 67 % 1001,8 hPa 0,0 l/m 0 min 0 min 0 W/m 9,0 km/h (2 Bft) 97,96 %
21.09.2018 07:00 21,4 C 20,6 C 20,0 C 67 % 1001,7 hPa 0,0 l/m 0 min 0 min 0 W/m 13,5 km/h (3 Bft) 98,00 %
21.09.2018 07:02 21,4 C 20,6 C 20,0 C 67 % 1001,8 hPa 0,0 l/m 0 min 0 min 0 W/m 11,3 km/h (2 Bft) 100,00 %
21.09.2018 07:04 21,4 C 20,6 C 20,0 C 68 % 1001,7 hPa 0,0 l/m 0 min 0 min 0 W/m 11,3 km/h (2 Bft) 100,00 %
21.09.2018 07:06 21,4 C 20,6 C 20,0 C 68 % 1001,6 hPa 0,0 l/m 0 min 0 min 0 W/m 9,0 km/h (2 Bft) 96,23 %
21.09.2018 07:08 21,4 C 20,6 C 20,0 C 68 % 1001,8 hPa 0,0 l/m 0 min 0 min 0 W/m 11,3 km/h (2 Bft) 100,00 %
21.09.2018 07:10 21,4 C 20,6 C 20,0 C 68 % 1001,8 hPa 0,0 l/m 0 min 0 min 0 W/m 13,5 km/h (3 Bft) 100,00 %
21.09.2018 07:12 21,4 C 20,6 C 20,0 C 68 % 1001,6 hPa 0,0 l/m 0 min 0 min 0 W/m 13,5 km/h (3 Bft) 100,00 %
21.09.2018 07:14 21,4 C 20,6 C 20,0 C 68 % 1001,7 hPa 0,0 l/m 0 min 0 min 0 W/m 13,5 km/h (3 Bft) 100,00 %
21.09.2018 07:16 21,4 C 20,6 C 20,0 C 68 % 1001,6 hPa 0,0 l/m 0 min 0 min 0 W/m 9,0 km/h (2 Bft) 97,92 %
21.09.2018 07:18 21,4 C 20,6 C 20,0 C 68 % 1001,7 hPa 0,0 l/m 0 min 0 min 0 W/m 11,3 km/h (2 Bft) 100,00 %
21.09.2018 07:20 21,4 C 20,6 C 20,0 C 68 % 1001,7 hPa 0,0 l/m 0 min 0 min 0 W/m 11,3 km/h (2 Bft) 100,00 %
21.09.2018 07:22 21,4 C 20,6 C 20,0 C 68 % 1001,6 hPa 0,0 l/m 0 min 0 min 0 W/m 11,3 km/h (2 Bft) 100,00 %
21.09.2018 07:24 21,4 C 20,6 C 20,0 C 68 % 1001,6 hPa 0,0 l/m 0 min 0 min 0 W/m 9,0 km/h (2 Bft) 100,00 %
21.09.2018 07:26 21,4 C 20,6 C 20,0 C 68 % 1001,7 hPa 0,0 l/m 0 min 0 min 0 W/m 6,8 km/h (2 Bft) 100,00 %
21.09.2018 07:28 21,4 C 20,6 C 19,4 C 68 % 1001,7 hPa 0,0 l/m 0 min 0 min 3 W/m 6,8 km/h (2 Bft) 100,00 %
21.09.2018 07:30 21,4 C 20,6 C 19,4 C 68 % 1001,6 hPa 0,0 l/m 0 min 0 min 6 W/m 9,0 km/h (2 Bft) 100,00 %
21.09.2018 07:32 21,3 C 20,6 C 19,4 C 68 % 1001,5 hPa 0,0 l/m 0 min 0 min 9 W/m 13,5 km/h (3 Bft) 100,00 %
21.09.2018 07:34 21,3 C 20,6 C 19,4 C 69 % 1001,7 hPa 0,0 l/m 0 min 0 min 12 W/m 6,8 km/h (2 Bft) 100,00 %
21.09.2018 07:36 21,3 C 20,6 C 19,4 C 69 % 1001,7 hPa 0,0 l/m 0 min 0 min 14 W/m 9,0 km/h (2 Bft) 100,00 %
21.09.2018 07:38 21,3 C 20,6 C 20,0 C 69 % 1001,6 hPa 0,0 l/m 0 min 0 min 15 W/m 9,0 km/h (2 Bft) 100,00 %
21.09.2018 07:40 21,3 C 20,6 C 19,4 C 69 % 1001,6 hPa 0,0 l/m 0 min 0 min 16 W/m 6,8 km/h (2 Bft) 100,00 %
21.09.2018 07:42 21,3 C 20,6 C 20,0 C 69 % 1001,6 hPa 0,0 l/m 0 min 0 min 14 W/m 11,3 km/h (2 Bft) 100,00 %
21.09.2018 07:44 21,3 C 20,6 C 20,0 C 69 % 1001,8 hPa 0,0 l/m 0 min 0 min 14 W/m 9,0 km/h (2 Bft) 100,00 %
21.09.2018 07:46 21,3 C 20,6 C 20,0 C 69 % 1001,6 hPa 0,0 l/m 0 min 0 min 14 W/m 9,0 km/h (2 Bft) 100,00 %
21.09.2018 07:48 21,3 C 20,6 C 19,4 C 69 % 1001,7 hPa 0,0 l/m 0 min 0 min 14 W/m 9,0 km/h (2 Bft) 100,00 %
21.09.2018 07:50 21,3 C 20,6 C 20,0 C 69 % 1001,7 hPa 0,0 l/m 0 min 0 min 14 W/m 13,5 km/h (3 Bft) 98,15 %
21.09.2018 07:52 21,3 C 20,6 C 20,0 C 69 % 1001,8 hPa 0,0 l/m 0 min 0 min 14 W/m 9,0 km/h (2 Bft) 100,00 %
21.09.2018 07:54 21,3 C 20,6 C 20,0 C 68 % 1001,7 hPa 0,0 l/m 0 min 0 min 14 W/m 11,3 km/h (2 Bft) 100,00 %
21.09.2018 07:56 21,3 C 20,6 C 20,0 C 67 % 1001,7 hPa 0,0 l/m 0 min 0 min 14 W/m 24,8 km/h (4 Bft) 100,00 %
21.09.2018 07:58 21,3 C 20,6 C 20,0 C 67 % 1001,6 hPa 0,0 l/m 0 min 0 min 12 W/m 11,3 km/h (2 Bft) 100,00 %
21.09.2018 08:00 21,3 C 20,6 C 20,0 C 67 % 1001,6 hPa 0,0 l/m 0 min 0 min 12 W/m 18,0 km/h (3 Bft) 98,00 %
21.09.2018 08:02 21,3 C 20,6 C 20,0 C 66 % 1001,6 hPa 0,0 l/m 0 min 0 min 13 W/m 11,3 km/h (2 Bft) 97,96 %
21.09.2018 08:04 21,3 C 20,6 C 20,0 C 65 % 1001,6 hPa 0,0 l/m 0 min 0 min 16 W/m 11,3 km/h (2 Bft) 97,30 %
21.09.2018 08:06 21,3 C 21,1 C 20,0 C 65 % 1001,6 hPa 0,0 l/m 0 min 0 min 20 W/m 15,8 km/h (3 Bft) 100,00 %
21.09.2018 08:08 21,4 C 21,1 C 20,0 C 64 % 1001,5 hPa 0,0 l/m 0 min 0 min 23 W/m 11,3 km/h (2 Bft) 100,00 %
21.09.2018 08:10 21,4 C 21,1 C 20,0 C 64 % 1001,7 hPa 0,0 l/m 0 min 0 min 26 W/m 13,5 km/h (3 Bft) 100,00 %
21.09.2018 08:12 21,4 C 21,1 C 20,0 C 63 % 1001,7 hPa 0,0 l/m 0 min 0 min 31 W/m 13,5 km/h (3 Bft) 100,00 %
21.09.2018 08:14 21,4 C 21,1 C 20,6 C 63 % 1002,0 hPa 0,0 l/m 0 min 0 min 39 W/m 13,5 km/h (3 Bft) 100,00 %
21.09.2018 08:16 21,5 C 21,1 C 20,6 C 63 % 1001,7 hPa 0,0 l/m 0 min 0 min 43 W/m 15,8 km/h (3 Bft) 97,96 %
21.09.2018 08:18 21,5 C 21,1 C 20,6 C 62 % 1001,8 hPa 0,0 l/m 0 min 0 min 36 W/m 20,3 km/h (4 Bft) 100,00 %
21.09.2018 08:20 21,6 C 21,1 C 20,6 C 62 % 1001,9 hPa 0,0 l/m 0 min 0 min 24 W/m 13,5 km/h (3 Bft) 100,00 %
21.09.2018 08:22 21,6 C 21,1 C 20,6 C 61 % 1002,0 hPa 0,0 l/m 0 min 0 min 18 W/m 15,8 km/h (3 Bft) 100,00 %
21.09.2018 08:24 21,7 C 21,1 C 20,6 C 60 % 1001,9 hPa 0,0 l/m 0 min 0 min 18 W/m 18,0 km/h (3 Bft) 100,00 %
21.09.2018 08:26 21,7 C 21,1 C 20,6 C 59 % 1002,1 hPa 0,0 l/m 0 min 0 min 21 W/m 18,0 km/h (3 Bft) 100,00 %
21.09.2018 08:28 21,8 C 21,1 C 20,6 C 59 % 1001,8 hPa 0,0 l/m 0 min 0 min 26 W/m 11,3 km/h (2 Bft) 100,00 %
21.09.2018 08:30 21,8 C 21,1 C 20,6 C 58 % 1001,8 hPa 0,0 l/m 0 min 0 min 30 W/m 15,8 km/h (3 Bft) 100,00 %
21.09.2018 08:32 21,8 C 21,1 C 20,6 C 58 % 1001,8 hPa 0,0 l/m 0 min 0 min 28 W/m 15,8 km/h (3 Bft) 100,00 %
21.09.2018 08:34 21,8 C 21,1 C 20,6 C 58 % 1001,8 hPa 0,0 l/m 0 min 0 min 23 W/m 18,0 km/h (3 Bft) 100,00 %
21.09.2018 08:36 21,9 C 21,1 C 20,6 C 57 % 1001,4 hPa 0,0 l/m 0 min 0 min 19 W/m 13,5 km/h (3 Bft) 97,92 %
21.09.2018 08:38 21,9 C 21,1 C 20,6 C 58 % 1001,6 hPa 0,0 l/m 0 min 0 min 18 W/m 11,3 km/h (2 Bft) 100,00 %
21.09.2018 08:40 21,9 C 21,1 C 20,6 C 57 % 1001,7 hPa 0,0 l/m 0 min 0 min 19 W/m 15,8 km/h (3 Bft) 100,00 %
21.09.2018 08:42 21,9 C 21,1 C 20,6 C 57 % 1001,9 hPa 0,0 l/m 0 min 0 min 21 W/m 20,3 km/h (4 Bft) 100,00 %
21.09.2018 08:44 21,9 C 21,1 C 20,6 C 58 % 1001,6 hPa 0,0 l/m 0 min 0 min 21 W/m 18,0 km/h (3 Bft) 100,00 %
21.09.2018 08:46 21,9 C 21,1 C 20,6 C 58 % 1001,8 hPa 0,0 l/m 0 min 0 min 19 W/m 15,8 km/h (3 Bft) 97,96 %
21.09.2018 08:48 21,9 C 21,1 C 20,6 C 58 % 1001,7 hPa 0,0 l/m 0 min 0 min 19 W/m 15,8 km/h (3 Bft) 97,14 %
21.09.2018 08:50 21,9 C 21,1 C 20,6 C 58 % 1001,5 hPa 0,0 l/m 0 min 0 min 24 W/m 13,5 km/h (3 Bft) 100,00 %
21.09.2018 08:52 21,9 C 21,1 C 20,6 C 58 % 1001,7 hPa 0,0 l/m 0 min 0 min 30 W/m 13,5 km/h (3 Bft) 97,92 %
21.09.2018 08:54 21,9 C 21,1 C 20,6 C 58 % 1001,5 hPa 0,0 l/m 0 min 0 min 33 W/m 13,5 km/h (3 Bft) 100,00 %
21.09.2018 08:56 21,9 C 21,1 C 20,6 C 59 % 1001,6 hPa 0,0 l/m 0 min 0 min 35 W/m 22,5 km/h (4 Bft) 90,00 %
21.09.2018 08:58 21,9 C 21,1 C 20,6 C 60 % 1001,8 hPa 0,0 l/m 0 min 0 min 37 W/m 20,3 km/h (4 Bft) 94,74 %
21.09.2018 09:00 21,8 C 21,1 C 20,6 C 60 % 1001,7 hPa 0,0 l/m 0 min 0 min 43 W/m 24,8 km/h (4 Bft) 95,74 %
21.09.2018 09:02 21,8 C 21,1 C 20,6 C 60 % 1001,9 hPa 0,0 l/m 0 min 2 min 45 W/m 18,0 km/h (3 Bft) 94,12 %
21.09.2018 09:04 21,8 C 21,1 C 20,6 C 60 % 1002,0 hPa 0,0 l/m 0 min 0 min 44 W/m 20,3 km/h (4 Bft) 93,48 %
21.09.2018 09:06 21,8 C 21,1 C 20,6 C 61 % 1001,9 hPa 0,0 l/m 0 min 2 min 42 W/m 13,5 km/h (3 Bft) 93,75 %
21.09.2018 09:08 21,8 C 21,1 C 20,6 C 61 % 1002,1 hPa 0,0 l/m 0 min 2 min 40 W/m 15,8 km/h (3 Bft) 95,45 %
21.09.2018 09:10 21,8 C 20,6 C 20,0 C 63 % 1001,9 hPa 0,0 l/m 0 min 2 min 39 W/m 11,3 km/h (2 Bft) 94,00 %
21.09.2018 09:12 21,8 C 20,6 C 20,0 C 63 % 1002,0 hPa 0,0 l/m 0 min 2 min 37 W/m 13,5 km/h (3 Bft) 91,84 %
21.09.2018 09:14 21,7 C 20,6 C 20,0 C 63 % 1002,2 hPa 0,0 l/m 0 min 2 min 38 W/m 20,3 km/h (4 Bft) 95,83 %
21.09.2018 09:16 21,6 C 20,6 C 20,0 C 64 % 1002,3 hPa 0,0 l/m 0 min 0 min 42 W/m 20,3 km/h (4 Bft) 94,59 %
21.09.2018 09:18 21,6 C 20,6 C 20,0 C 64 % 1002,1 hPa 0,0 l/m 0 min 2 min 51 W/m 11,3 km/h (2 Bft) 92,45 %
21.09.2018 09:20 21,5 C 20,6 C 20,0 C 64 % 1002,3 hPa 0,0 l/m 0 min 0 min 57 W/m 13,5 km/h (3 Bft) 92,00 %
21.09.2018 09:22 21,4 C 20,6 C 20,0 C 64 % 1001,9 hPa 0,0 l/m 0 min 2 min 56 W/m 13,5 km/h (3 Bft) 94,00 %
21.09.2018 09:24 21,4 C 20,6 C 20,0 C 65 % 1002,0 hPa 0,0 l/m 0 min 0 min 48 W/m 11,3 km/h (2 Bft) 91,43 %
21.09.2018 09:26 21,4 C 20,6 C 20,0 C 65 % 1002,0 hPa 0,0 l/m 0 min 0 min 38 W/m 13,5 km/h (3 Bft) 93,75 %
21.09.2018 09:28 21,3 C 20,6 C 20,0 C 65 % 1002,0 hPa 0,0 l/m 0 min 0 min 43 W/m 9,0 km/h (2 Bft) 93,48 %
21.09.2018 09:30 21,3 C 20,0 C 20,0 C 65 % 1001,9 hPa 0,0 l/m 0 min 0 min 49 W/m 15,8 km/h (3 Bft) 95,74 %
21.09.2018 09:32 21,3 C 20,0 C 20,0 C 66 % 1001,9 hPa 0,0 l/m 0 min 0 min 56 W/m 11,3 km/h (2 Bft) 93,88 %
21.09.2018 09:34 21,2 C 20,0 C 20,0 C 65 % 1001,7 hPa 0,0 l/m 0 min 0 min 66 W/m 9,0 km/h (2 Bft) 92,00 %
21.09.2018 09:36 21,2 C 20,0 C 19,4 C 66 % 1001,8 hPa 0,0 l/m 0 min 2 min 78 W/m 11,3 km/h (2 Bft) 93,88 %
21.09.2018 09:38 21,2 C 20,0 C 19,4 C 66 % 1001,9 hPa 0,0 l/m 0 min 2 min 76 W/m 15,8 km/h (3 Bft) 94,44 %
21.09.2018 09:40 21,2 C 20,0 C 19,4 C 67 % 1001,7 hPa 0,0 l/m 0 min 2 min 68 W/m 6,8 km/h (2 Bft) 93,75 %
21.09.2018 09:42 21,1 C 20,0 C 19,4 C 67 % 1001,7 hPa 0,0 l/m 0 min 0 min 74 W/m 11,3 km/h (2 Bft) 93,48 %
21.09.2018 09:44 21,1 C 20,0 C 19,4 C 67 % 1001,5 hPa 0,0 l/m 0 min 0 min 74 W/m 15,8 km/h (3 Bft) 95,74 %
21.09.2018 09:46 21,1 C 20,6 C 19,4 C 67 % 1001,4 hPa 0,0 l/m 0 min 0 min 73 W/m 13,5 km/h (3 Bft) 95,92 %
21.09.2018 09:48 21,1 C 20,6 C 19,4 C 67 % 1001,4 hPa 0,0 l/m 0 min 0 min 82 W/m 6,8 km/h (2 Bft) 91,49 %
21.09.2018 09:50 21,0 C 20,6 C 19,4 C 67 % 1001,5 hPa 0,0 l/m 0 min 0 min 70 W/m 9,0 km/h (2 Bft) 96,61 %
21.09.2018 09:52 21,0 C 20,6 C 20,0 C 67 % 1001,8 hPa 0,0 l/m 0 min 0 min 61 W/m 6,8 km/h (2 Bft) 95,74 %
21.09.2018 09:54 21,0 C 20,6 C 20,0 C 67 % 1001,8 hPa 0,0 l/m 0 min 0 min 61 W/m 15,8 km/h (3 Bft) 97,14 %
21.09.2018 09:56 21,0 C 20,6 C 19,4 C 67 % 1001,8 hPa 0,0 l/m 0 min 2 min 56 W/m 13,5 km/h (3 Bft) 97,87 %
21.09.2018 09:58 21,0 C 20,6 C 19,4 C 67 % 1001,9 hPa 0,0 l/m 0 min 0 min 49 W/m 9,0 km/h (2 Bft) 95,74 %
21.09.2018 10:00 21,0 C 20,0 C 19,4 C 67 % 1001,9 hPa 0,0 l/m 0 min 0 min 48 W/m 11,3 km/h (2 Bft) 95,83 %
21.09.2018 10:02 21,0 C 20,0 C 19,4 C 67 % 1001,9 hPa 0,0 l/m 0 min 0 min 40 W/m 11,3 km/h (2 Bft) 97,96 %
21.09.2018 10:04 21,0 C 20,0 C 19,4 C 67 % 1002,0 hPa 0,0 l/m 0 min 0 min 42 W/m 11,3 km/h (2 Bft) 100,00 %
21.09.2018 10:06 21,0 C 20,0 C 19,4 C 67 % 1001,9 hPa 0,0 l/m 0 min 0 min 44 W/m 15,8 km/h (3 Bft) 100,00 %
21.09.2018 10:08 21,0 C 20,0 C 19,4 C 67 % 1001,7 hPa 0,0 l/m 0 min 0 min 45 W/m 11,3 km/h (2 Bft) 97,37 %
21.09.2018 10:10 21,0 C 20,0 C 19,4 C 68 % 1001,5 hPa 0,0 l/m 0 min 0 min 30 W/m 15,8 km/h (3 Bft) 97,96 %
21.09.2018 10:12 21,0 C 20,0 C 19,4 C 68 % 1001,5 hPa 0,0 l/m 0 min 0 min 24 W/m 13,5 km/h (3 Bft) 100,00 %
21.09.2018 10:14 20,9 C 20,0 C 19,4 C 68 % 1001,5 hPa 0,0 l/m 0 min 0 min 33 W/m 9,0 km/h (2 Bft) 100,00 %
21.09.2018 10:16 20,9 C 20,0 C 19,4 C 68 % 1001,5 hPa 0,0 l/m 0 min 2 min 29 W/m 18,0 km/h (3 Bft) 100,00 %
21.09.2018 10:18 20,9 C 19,4 C 18,9 C 70 % 1001,6 hPa 0,0 l/m 0 min 2 min 24 W/m 18,0 km/h (3 Bft) 100,00 %
21.09.2018 10:20 20,8 C 18,9 C 18,3 C 71 % 1001,8 hPa 0,0 l/m 0 min 2 min 25 W/m 11,3 km/h (2 Bft) 100,00 %
21.09.2018 10:22 20,7 C 18,3 C 17,8 C 72 % 1002,5 hPa 0,0 l/m 0 min 2 min 18 W/m 20,3 km/h (4 Bft) 100,00 %
21.09.2018 10:24 20,6 C 16,7 C 16,7 C 74 % 1002,7 hPa 0,0 l/m 0 min 2 min 14 W/m 9,0 km/h (2 Bft) 100,00 %
21.09.2018 10:26 20,2 C 14,4 C 15,0 C 76 % 1003,2 hPa 0,6 l/m 0 min 2 min 16 W/m 38,3 km/h (5 Bft) 100,00 %
21.09.2018 10:28 19,5 C 13,9 C 13,9 C 77 % 1003,5 hPa 0,2 l/m 0 min 2 min 26 W/m 24,8 km/h (4 Bft) 100,00 %
21.09.2018 10:30 18,7 C 12,8 C 12,8 C 76 % 1003,6 hPa 0,0 l/m 0 min 2 min 40 W/m 20,3 km/h (4 Bft) 100,00 %
21.09.2018 10:32 17,9 C 12,2 C 12,2 C 76 % 1003,7 hPa 0,2 l/m 0 min 2 min 38 W/m 22,5 km/h (4 Bft) 100,00 %
21.09.2018 10:34 17,3 C 12,2 C 12,2 C 77 % 1003,9 hPa 0,0 l/m 0 min 2 min 38 W/m 13,5 km/h (3 Bft) 100,00 %
21.09.2018 10:36 16,8 C 12,2 C 12,2 C 78 % 1004,0 hPa 0,2 l/m 0 min 2 min 46 W/m 25,7 km/h (4 Bft) 100,00 %
21.09.2018 10:38 16,4 C 12,2 C 12,2 C 79 % 1003,9 hPa 0,0 l/m 0 min 2 min 53 W/m 22,5 km/h (4 Bft) 100,00 %
21.09.2018 10:40 16,1 C 12,2 C 12,2 C 80 % 1004,1 hPa 0,0 l/m 0 min 2 min 55 W/m 25,7 km/h (4 Bft) 100,00 %
21.09.2018 10:42 15,8 C 12,2 C 12,2 C 81 % 1004,1 hPa 0,0 l/m 0 min 2 min 48 W/m 19,3 km/h (3 Bft) 100,00 %
21.09.2018 10:44 15,5 C 11,7 C 12,2 C 81 % 1004,0 hPa 0,0 l/m 0 min 2 min 36 W/m 32,2 km/h (5 Bft) 100,00 %
21.09.2018 10:46 15,2 C 11,7 C 12,2 C 82 % 1004,2 hPa 0,0 l/m 0 min 2 min 39 W/m 9,7 km/h (2 Bft) 100,00 %
21.09.2018 10:48 15,1 C 11,7 C 12,2 C 82 % 1004,3 hPa 0,0 l/m 0 min 2 min 55 W/m 6,4 km/h (2 Bft) 100,00 %
21.09.2018 10:50 14,9 C 11,7 C 12,2 C 83 % 1004,2 hPa 0,2 l/m 0 min 2 min 81 W/m 12,9 km/h (3 Bft) 100,00 %
21.09.2018 10:52 14,8 C 12,2 C 12,2 C 84 % 1004,0 hPa 0,2 l/m 0 min 2 min 120 W/m 19,3 km/h (3 Bft) 100,00 %
21.09.2018 10:54 14,7 C 12,2 C 12,2 C 85 % 1004,0 hPa 0,0 l/m 0 min 2 min 106 W/m 9,7 km/h (2 Bft) 100,00 %
21.09.2018 10:56 14,6 C 12,2 C 12,2 C 85 % 1004,0 hPa 0,0 l/m 0 min 2 min 94 W/m 9,7 km/h (2 Bft) 97,87 %
21.09.2018 10:58 14,4 C 12,2 C 12,2 C 86 % 1004,1 hPa 0,0 l/m 0 min 2 min 80 W/m 9,7 km/h (2 Bft) 100,00 %
21.09.2018 11:00 14,3 C 12,2 C 12,2 C 86 % 1004,3 hPa 0,0 l/m 0 min 2 min 75 W/m 25,7 km/h (4 Bft) 100,00 %
21.09.2018 11:02 14,2 C 12,2 C 12,2 C 87 % 1004,1 hPa 0,0 l/m 0 min 2 min 75 W/m 12,9 km/h (3 Bft) 100,00 %
21.09.2018 11:04 14,2 C 12,2 C 12,2 C 87 % 1004,4 hPa 0,0 l/m 0 min 2 min 61 W/m 25,7 km/h (4 Bft) 100,00 %
21.09.2018 11:06 14,2 C 11,7 C 11,7 C 87 % 1004,6 hPa 0,0 l/m 0 min 2 min 59 W/m 35,4 km/h (5 Bft) 100,00 %
21.09.2018 11:08 14,2 C 11,7 C 11,7 C 87 % 1004,7 hPa 0,2 l/m 0 min 2 min 63 W/m 19,3 km/h (3 Bft) 100,00 %
21.09.2018 11:10 14,1 C 11,7 C 12,2 C 88 % 1004,7 hPa 0,0 l/m 0 min 2 min 80 W/m 22,5 km/h (4 Bft) 100,00 %
21.09.2018 11:12 14,0 C 11,7 C 11,7 C 88 % 1005,0 hPa 0,0 l/m 0 min 2 min 97 W/m 19,3 km/h (3 Bft) 100,00 %
21.09.2018 11:14 13,9 C 11,7 C 12,2 C 88 % 1004,8 hPa 0,0 l/m 0 min 2 min 103 W/m 12,9 km/h (3 Bft) 97,83 %
21.09.2018 11:16 13,9 C 12,2 C 12,2 C 88 % 1004,8 hPa 0,0 l/m 0 min 2 min 109 W/m 12,9 km/h (3 Bft) 100,00 %
21.09.2018 11:18 13,9 C 12,2 C 12,2 C 89 % 1004,8 hPa 0,2 l/m 0 min 2 min 107 W/m 9,7 km/h (2 Bft) 100,00 %
21.09.2018 11:20 13,9 C 12,2 C 12,2 C 89 % 1004,8 hPa 0,0 l/m 0 min 2 min 113 W/m 6,4 km/h (2 Bft) 100,00 %
21.09.2018 11:22 13,9 C 12,2 C 12,2 C 89 % 1004,6 hPa 0,0 l/m 0 min 2 min 110 W/m 12,9 km/h (3 Bft) 100,00 %
21.09.2018 11:24 13,9 C 12,2 C 12,2 C 90 % 1004,7 hPa 0,0 l/m 0 min 2 min 104 W/m 12,9 km/h (3 Bft) 100,00 %
21.09.2018 11:26 13,9 C 12,2 C 12,2 C 90 % 1004,9 hPa 0,0 l/m 0 min 2 min 100 W/m 9,7 km/h (2 Bft) 97,92 %
21.09.2018 11:28 13,9 C 12,2 C 12,2 C 90 % 1004,9 hPa 0,0 l/m 0 min 2 min 103 W/m 9,7 km/h (2 Bft) 100,00 %
21.09.2018 11:30 13,9 C 12,2 C 12,2 C 91 % 1004,9 hPa 0,0 l/m 0 min 2 min 86 W/m 9,7 km/h (2 Bft) 100,00 %
21.09.2018 11:32 13,9 C 12,2 C 12,2 C 91 % 1005,0 hPa 0,0 l/m 0 min 0 min 98 W/m 3,2 km/h (1 Bft) 100,00 %
21.09.2018 11:34 13,9 C 12,8 C 12,8 C 91 % 1005,0 hPa 0,0 l/m 0 min 0 min 103 W/m 6,4 km/h (2 Bft) 100,00 %
21.09.2018 11:36 13,9 C 12,2 C 12,8 C 91 % 1005,0 hPa 0,0 l/m 0 min 0 min 101 W/m 9,7 km/h (2 Bft) 100,00 %
21.09.2018 11:38 13,9 C 12,8 C 12,2 C 91 % 1005,0 hPa 0,0 l/m 0 min 0 min 99 W/m 6,4 km/h (2 Bft) 100,00 %
21.09.2018 11:40 13,9 C 12,8 C 12,2 C 91 % 1004,9 hPa 0,0 l/m 0 min 0 min 96 W/m 9,7 km/h (2 Bft) 100,00 %
21.09.2018 11:42 13,9 C 12,8 C 12,8 C 91 % 1004,9 hPa 0,0 l/m 0 min 0 min 111 W/m 9,7 km/h (2 Bft) 95,83 %
21.09.2018 11:44 13,9 C 12,8 C 12,8 C 92 % 1005,0 hPa 0,0 l/m 0 min 0 min 108 W/m 9,7 km/h (2 Bft) 97,87 %
21.09.2018 11:46 13,9 C 12,8 C 12,8 C 92 % 1004,9 hPa 0,0 l/m 0 min 0 min 105 W/m 16,1 km/h (3 Bft) 97,92 %
21.09.2018 11:48 13,9 C 12,8 C 12,8 C 92 % 1004,8 hPa 0,0 l/m 0 min 0 min 108 W/m 9,7 km/h (2 Bft) 100,00 %
21.09.2018 11:50 14,0 C 12,8 C 12,8 C 92 % 1004,8 hPa 0,0 l/m 0 min 0 min 122 W/m 9,7 km/h (2 Bft) 97,92 %
21.09.2018 11:52 14,1 C 12,8 C 12,8 C 92 % 1004,7 hPa 0,0 l/m 0 min 0 min 124 W/m 16,1 km/h (3 Bft) 93,75 %
21.09.2018 11:54 14,1 C 12,8 C 12,8 C 92 % 1004,9 hPa 0,0 l/m 0 min 0 min 122 W/m 9,7 km/h (2 Bft) 95,74 %
21.09.2018 11:56 14,2 C 12,8 C 12,8 C 93 % 1004,9 hPa 0,0 l/m 0 min 0 min 118 W/m 6,4 km/h (2 Bft) 97,83 %
21.09.2018 11:58 14,2 C 12,8 C 13,3 C 93 % 1005,0 hPa 0,0 l/m 0 min 0 min 112 W/m 6,4 km/h (2 Bft) 97,87 %
21.09.2018 12:00 14,2 C 13,3 C 13,3 C 93 % 1005,0 hPa 0,0 l/m 0 min 0 min 122 W/m 3,2 km/h (1 Bft) 93,62 %
21.09.2018 12:02 14,2 C 12,8 C 13,3 C 93 % 1004,8 hPa 0,0 l/m 0 min 0 min 137 W/m 12,9 km/h (3 Bft) 97,67 %
21.09.2018 12:04 14,2 C 12,8 C 13,3 C 93 % 1004,9 hPa 0,0 l/m 0 min 0 min 154 W/m 9,7 km/h (2 Bft) 98,00 %
21.09.2018 12:06 14,2 C 13,3 C 13,3 C 93 % 1005,0 hPa 0,0 l/m 0 min 0 min 145 W/m 6,4 km/h (2 Bft) 95,83 %
21.09.2018 12:08 14,2 C 13,3 C 13,3 C 93 % 1005,0 hPa 0,0 l/m 0 min 0 min 158 W/m 12,9 km/h (3 Bft) 95,65 %
21.09.2018 12:10 14,2 C 13,3 C 13,3 C 93 % 1005,0 hPa 0,0 l/m 0 min 0 min 202 W/m 3,2 km/h (1 Bft) 95,74 %
21.09.2018 12:12 14,3 C 13,3 C 13,3 C 93 % 1005,0 hPa 0,0 l/m 0 min 0 min 239 W/m 12,9 km/h (3 Bft) 93,62 %
21.09.2018 12:14 14,4 C 13,9 C 13,3 C 93 % 1005,1 hPa 0,0 l/m 0 min 0 min 253 W/m 3,2 km/h (1 Bft) 97,87 %
21.09.2018 12:16 14,4 C 13,9 C 13,9 C 93 % 1005,2 hPa 0,0 l/m 0 min 0 min 237 W/m 9,7 km/h (2 Bft) 95,74 %
21.09.2018 12:18 14,5 C 13,9 C 13,9 C 93 % 1005,0 hPa 0,0 l/m 0 min 0 min 212 W/m 6,4 km/h (2 Bft) 95,74 %
21.09.2018 12:20 14,6 C 13,9 C 13,9 C 93 % 1005,0 hPa 0,0 l/m 0 min 0 min 228 W/m 12,9 km/h (3 Bft) 95,65 %
21.09.2018 12:22 14,6 C 13,9 C 13,9 C 93 % 1005,2 hPa 0,0 l/m 0 min 0 min 209 W/m 9,7 km/h (2 Bft) 95,83 %
21.09.2018 12:24 14,6 C 13,9 C 13,9 C 93 % 1005,2 hPa 0,0 l/m 0 min 0 min 234 W/m 9,7 km/h (2 Bft) 95,74 %
21.09.2018 12:26 14,7 C 13,9 C 13,9 C 93 % 1005,2 hPa 0,0 l/m 0 min 0 min 249 W/m 6,4 km/h (2 Bft) 91,49 %
21.09.2018 12:28 14,8 C 13,9 C 13,9 C 93 % 1005,1 hPa 0,0 l/m 0 min 0 min 240 W/m 16,1 km/h (3 Bft) 97,56 %
21.09.2018 12:30 14,8 C 13,9 C 13,9 C 93 % 1005,2 hPa 0,0 l/m 0 min 0 min 268 W/m 16,1 km/h (3 Bft) 93,75 %
21.09.2018 12:32 14,8 C 14,4 C 13,9 C 93 % 1005,2 hPa 0,0 l/m 0 min 0 min 274 W/m 6,4 km/h (2 Bft) 90,20 %
21.09.2018 12:34 14,9 C 14,4 C 13,9 C 93 % 1005,2 hPa 0,0 l/m 0 min 0 min 269 W/m 6,4 km/h (2 Bft) 95,65 %
21.09.2018 12:36 15,0 C 14,4 C 13,9 C 93 % 1005,3 hPa 0,0 l/m 0 min 0 min 220 W/m 16,1 km/h (3 Bft) 95,83 %
21.09.2018 12:38 15,1 C 13,9 C 13,9 C 93 % 1005,2 hPa 0,0 l/m 0 min 0 min 197 W/m 9,7 km/h (2 Bft) 91,49 %
21.09.2018 12:40 15,1 C 14,4 C 13,9 C 92 % 1005,2 hPa 0,0 l/m 0 min 0 min 185 W/m 9,7 km/h (2 Bft) 95,74 %
21.09.2018 12:42 15,1 C 13,9 C 13,9 C 92 % 1005,2 hPa 0,0 l/m 0 min 0 min 229 W/m 16,1 km/h (3 Bft) 95,74 %
21.09.2018 12:44 15,2 C 14,4 C 13,9 C 92 % 1005,2 hPa 0,0 l/m 0 min 0 min 248 W/m 16,1 km/h (3 Bft) 95,65 %
21.09.2018 12:46 15,2 C 14,4 C 13,9 C 92 % 1005,2 hPa 0,0 l/m 0 min 0 min 224 W/m 9,7 km/h (2 Bft) 93,62 %
21.09.2018 12:48 15,2 C 13,9 C 13,9 C 92 % 1005,2 hPa 0,0 l/m 0 min 0 min 158 W/m 16,1 km/h (3 Bft) 93,62 %
21.09.2018 12:50 15,3 C 14,4 C 13,9 C 92 % 1005,2 hPa 0,0 l/m 0 min 0 min 172 W/m 16,1 km/h (3 Bft) 95,74 %
21.09.2018 12:52 15,3 C 13,9 C 13,9 C 91 % 1005,2 hPa 0,0 l/m 0 min 0 min 156 W/m 12,9 km/h (3 Bft) 95,83 %
21.09.2018 12:54 15,3 C 14,4 C 13,9 C 91 % 1005,2 hPa 0,0 l/m 0 min 0 min 145 W/m 6,4 km/h (2 Bft) 91,43 %
21.09.2018 12:56 15,4 C 14,4 C 13,9 C 91 % 1005,3 hPa 0,0 l/m 0 min 0 min 197 W/m 9,7 km/h (2 Bft) 95,12 %
21.09.2018 12:58 15,4 C 14,4 C 13,9 C 91 % 1005,3 hPa 0,0 l/m 0 min 0 min 99 W/m 6,4 km/h (2 Bft) 97,92 %
21.09.2018 13:00 15,4 C 14,4 C 13,9 C 91 % 1005,4 hPa 0,0 l/m 0 min 0 min 73 W/m 9,7 km/h (2 Bft) 95,92 %
21.09.2018 13:02 15,4 C 13,9 C 13,9 C 90 % 1005,3 hPa 0,0 l/m 0 min 0 min 95 W/m 12,9 km/h (3 Bft) 100,00 %
21.09.2018 13:04 15,4 C 14,4 C 13,9 C 90 % 1005,2 hPa 0,0 l/m 0 min 0 min 113 W/m 6,4 km/h (2 Bft) 96,61 %
21.09.2018 13:06 15,4 C 14,4 C 13,9 C 90 % 1005,3 hPa 0,0 l/m 0 min 0 min 165 W/m 6,4 km/h (2 Bft) 97,22 %
21.09.2018 13:08 15,5 C 14,4 C 13,9 C 90 % 1005,3 hPa 0,0 l/m 0 min 0 min 118 W/m 6,4 km/h (2 Bft) 93,75 %
21.09.2018 13:10 15,5 C 14,4 C 13,9 C 90 % 1005,4 hPa 0,0 l/m 0 min 2 min 73 W/m 9,7 km/h (2 Bft) 97,87 %
21.09.2018 13:12 15,5 C 14,4 C 13,9 C 90 % 1005,4 hPa 0,0 l/m 0 min 2 min 90 W/m 12,9 km/h (3 Bft) 95,74 %
21.09.2018 13:14 15,5 C 13,9 C 13,9 C 89 % 1005,5 hPa 0,0 l/m 0 min 0 min 93 W/m 6,4 km/h (2 Bft) 97,87 %
21.09.2018 13:16 15,6 C 14,4 C 13,9 C 89 % 1005,5 hPa 0,0 l/m 0 min 0 min 155 W/m 9,7 km/h (2 Bft) 97,87 %
21.09.2018 13:18 15,6 C 15,0 C 13,9 C 89 % 1005,5 hPa 0,0 l/m 0 min 2 min 234 W/m 16,1 km/h (3 Bft) 95,74 %
21.09.2018 13:20 15,6 C 15,6 C 13,9 C 89 % 1005,5 hPa 0,0 l/m 0 min 0 min 311 W/m 9,7 km/h (2 Bft) 97,87 %
21.09.2018 13:22 15,6 C 16,1 C 14,4 C 88 % 1005,6 hPa 0,0 l/m 2 min 0 min 387 W/m 16,1 km/h (3 Bft) 97,62 %
21.09.2018 13:24 15,7 C 17,2 C 14,4 C 88 % 1005,4 hPa 0,0 l/m 2 min 0 min 419 W/m 12,9 km/h (3 Bft) 97,87 %
21.09.2018 13:26 15,8 C 17,2 C 14,4 C 88 % 1005,5 hPa 0,0 l/m 2 min 0 min 527 W/m 22,5 km/h (4 Bft) 95,83 %
21.09.2018 13:28 15,9 C 17,2 C 14,4 C 87 % 1005,5 hPa 0,0 l/m 2 min 0 min 414 W/m 9,7 km/h (2 Bft) 97,92 %
21.09.2018 13:30 16,0 C 17,2 C 14,4 C 87 % 1005,5 hPa 0,0 l/m 2 min 0 min 345 W/m 12,9 km/h (3 Bft) 97,92 %
21.09.2018 13:32 16,1 C 17,2 C 14,4 C 86 % 1005,5 hPa 0,0 l/m 2 min 0 min 359 W/m 9,7 km/h (2 Bft) 100,00 %
21.09.2018 13:34 16,2 C 17,2 C 14,4 C 85 % 1005,5 hPa 0,0 l/m 2 min 0 min 342 W/m 12,9 km/h (3 Bft) 97,92 %
21.09.2018 13:36 16,2 C 17,2 C 14,4 C 85 % 1005,6 hPa 0,0 l/m 2 min 0 min 345 W/m 22,5 km/h (4 Bft) 97,87 %
21.09.2018 13:38 16,3 C 16,7 C 14,4 C 83 % 1005,6 hPa 0,0 l/m 0 min 0 min 306 W/m 19,3 km/h (3 Bft) 97,92 %
21.09.2018 13:40 16,3 C 16,7 C 14,4 C 82 % 1005,6 hPa 0,0 l/m 0 min 0 min 261 W/m 16,1 km/h (3 Bft) 100,00 %
21.09.2018 13:42 16,4 C 16,7 C 14,4 C 82 % 1005,6 hPa 0,0 l/m 0 min 0 min 247 W/m 6,4 km/h (2 Bft) 100,00 %
21.09.2018 13:44 16,4 C 16,7 C 14,4 C 81 % 1005,6 hPa 0,0 l/m 0 min 0 min 228 W/m 19,3 km/h (3 Bft) 97,87 %
21.09.2018 13:46 16,5 C 16,1 C 14,4 C 81 % 1005,6 hPa 0,0 l/m 0 min 0 min 214 W/m 16,1 km/h (3 Bft) 100,00 %
21.09.2018 13:48 16,5 C 16,1 C 14,4 C 81 % 1005,6 hPa 0,0 l/m 0 min 0 min 200 W/m 16,1 km/h (3 Bft) 100,00 %
21.09.2018 13:50 16,5 C 16,1 C 13,9 C 80 % 1005,8 hPa 0,0 l/m 0 min 0 min 155 W/m 16,1 km/h (3 Bft) 100,00 %
21.09.2018 13:52 16,4 C 16,1 C 13,9 C 80 % 1005,9 hPa 0,0 l/m 0 min 0 min 127 W/m 22,5 km/h (4 Bft) 100,00 %
21.09.2018 13:54 16,4 C 16,1 C 13,9 C 80 % 1005,8 hPa 0,0 l/m 0 min 0 min 153 W/m 12,9 km/h (3 Bft) 97,87 %
21.09.2018 13:56 16,4 C 16,1 C 13,9 C 80 % 1005,8 hPa 0,0 l/m 0 min 0 min 192 W/m 16,1 km/h (3 Bft) 100,00 %
21.09.2018 13:58 16,4 C 16,1 C 14,4 C 80 % 1005,9 hPa 0,0 l/m 0 min 0 min 159 W/m 9,7 km/h (2 Bft) 100,00 %
21.09.2018 14:00 16,4 C 15,6 C 14,4 C 80 % 1006,0 hPa 0,0 l/m 0 min 0 min 107 W/m 29,0 km/h (5 Bft) 100,00 %
21.09.2018 14:02 16,4 C 15,6 C 14,4 C 80 % 1006,0 hPa 0,0 l/m 0 min 0 min 97 W/m 12,9 km/h (3 Bft) 100,00 %
21.09.2018 14:04 16,4 C 15,6 C 14,4 C 80 % 1006,1 hPa 0,0 l/m 0 min 0 min 124 W/m 12,9 km/h (3 Bft) 100,00 %
21.09.2018 14:06 16,3 C 16,1 C 14,4 C 80 % 1006,0 hPa 0,0 l/m 0 min 0 min 171 W/m 16,1 km/h (3 Bft) 100,00 %
21.09.2018 14:08 16,3 C 16,1 C 14,4 C 79 % 1006,1 hPa 0,0 l/m 0 min 0 min 189 W/m 16,1 km/h (3 Bft) 100,00 %
21.09.2018 14:10 16,3 C 16,1 C 15,0 C 79 % 1006,1 hPa 0,0 l/m 0 min 0 min 188 W/m 12,9 km/h (3 Bft) 97,83 %
21.09.2018 14:12 16,3 C 16,1 C 15,0 C 79 % 1006,1 hPa 0,0 l/m 0 min 0 min 199 W/m 12,9 km/h (3 Bft) 100,00 %
21.09.2018 14:14 16,3 C 16,1 C 15,0 C 79 % 1006,3 hPa 0,0 l/m 0 min 0 min 201 W/m 12,9 km/h (3 Bft) 100,00 %
21.09.2018 14:16 16,3 C 16,1 C 15,0 C 78 % 1006,3 hPa 0,0 l/m 0 min 0 min 210 W/m 16,1 km/h (3 Bft) 100,00 %
21.09.2018 14:18 16,3 C 16,1 C 15,6 C 78 % 1006,2 hPa 0,0 l/m 0 min 0 min 223 W/m 16,1 km/h (3 Bft) 100,00 %
21.09.2018 14:20 16,3 C 16,1 C 15,6 C 76 % 1006,3 hPa 0,0 l/m 0 min 0 min 227 W/m 19,3 km/h (3 Bft) 97,87 %
21.09.2018 14:22 16,3 C 16,1 C 15,6 C 75 % 1006,3 hPa 0,0 l/m 0 min 0 min 217 W/m 16,1 km/h (3 Bft) 100,00 %
21.09.2018 14:24 16,3 C 16,1 C 15,6 C 75 % 1006,3 hPa 0,0 l/m 0 min 0 min 202 W/m 25,7 km/h (4 Bft) 100,00 %
21.09.2018 14:26 16,3 C 16,1 C 15,6 C 75 % 1006,5 hPa 0,0 l/m 0 min 0 min 198 W/m 22,5 km/h (4 Bft) 100,00 %
21.09.2018 14:28 16,3 C 16,1 C 15,6 C 75 % 1006,5 hPa 0,0 l/m 0 min 0 min 197 W/m 16,1 km/h (3 Bft) 100,00 %
21.09.2018 14:30 16,3 C 16,1 C 15,6 C 74 % 1006,6 hPa 0,0 l/m 0 min 0 min 207 W/m 19,3 km/h (3 Bft) 97,87 %
21.09.2018 14:32 16,3 C 16,1 C 15,6 C 74 % 1006,6 hPa 0,0 l/m 0 min 0 min 225 W/m 9,7 km/h (2 Bft) 97,87 %
21.09.2018 14:34 16,3 C 16,1 C 15,6 C 74 % 1006,7 hPa 0,0 l/m 0 min 0 min 234 W/m 12,9 km/h (3 Bft) 95,65 %
21.09.2018 14:36 16,3 C 16,1 C 15,6 C 74 % 1006,7 hPa 0,0 l/m 0 min 0 min 234 W/m 12,9 km/h (3 Bft) 97,87 %
21.09.2018 14:38 16,3 C 16,1 C 15,6 C 74 % 1006,7 hPa 0,0 l/m 0 min 0 min 234 W/m 16,1 km/h (3 Bft) 97,87 %
21.09.2018 14:40 16,4 C 16,7 C 15,6 C 73 % 1006,8 hPa 0,0 l/m 0 min 0 min 224 W/m 12,9 km/h (3 Bft) 97,87 %
21.09.2018 14:42 16,4 C 16,7 C 15,6 C 73 % 1006,8 hPa 0,0 l/m 0 min 0 min 232 W/m 12,9 km/h (3 Bft) 97,87 %
21.09.2018 14:44 16,4 C 16,7 C 15,6 C 73 % 1006,8 hPa 0,0 l/m 0 min 0 min 239 W/m 9,7 km/h (2 Bft) 97,83 %
21.09.2018 14:46 16,5 C 16,7 C 15,6 C 73 % 1006,8 hPa 0,0 l/m 0 min 0 min 226 W/m 12,9 km/h (3 Bft) 97,92 %
21.09.2018 14:48 16,5 C 16,7 C 15,6 C 73 % 1006,9 hPa 0,0 l/m 0 min 0 min 238 W/m 22,5 km/h (4 Bft) 93,62 %
21.09.2018 14:50 16,6 C 16,7 C 15,6 C 72 % 1006,9 hPa 0,0 l/m 0 min 0 min 271 W/m 19,3 km/h (3 Bft) 97,87 %
21.09.2018 14:52 16,6 C 16,7 C 16,1 C 72 % 1007,0 hPa 0,0 l/m 2 min 0 min 298 W/m 22,5 km/h (4 Bft) 95,74 %
21.09.2018 14:54 16,6 C 16,7 C 16,1 C 71 % 1007,0 hPa 0,0 l/m 2 min 0 min 336 W/m 25,7 km/h (4 Bft) 97,87 %
21.09.2018 14:56 16,6 C 16,7 C 16,1 C 70 % 1007,2 hPa 0,0 l/m 2 min 0 min 367 W/m 22,5 km/h (4 Bft) 97,83 %
21.09.2018 14:58 16,7 C 17,2 C 16,1 C 68 % 1007,1 hPa 0,0 l/m 2 min 0 min 345 W/m 19,3 km/h (3 Bft) 95,74 %
21.09.2018 15:00 16,7 C 16,7 C 16,1 C 68 % 1007,0 hPa 0,0 l/m 0 min 0 min 274 W/m 16,1 km/h (3 Bft) 97,87 %
21.09.2018 15:02 16,7 C 16,7 C 16,1 C 68 % 1007,1 hPa 0,0 l/m 0 min 0 min 255 W/m 16,1 km/h (3 Bft) 97,87 %
21.09.2018 15:04 16,8 C 16,7 C 16,1 C 68 % 1007,2 hPa 0,0 l/m 0 min 0 min 268 W/m 19,3 km/h (3 Bft) 97,87 %
21.09.2018 15:06 16,8 C 16,7 C 16,1 C 67 % 1007,2 hPa 0,0 l/m 0 min 0 min 257 W/m 9,7 km/h (2 Bft) 95,74 %
21.09.2018 15:08 16,8 C 17,2 C 16,1 C 68 % 1007,3 hPa 0,0 l/m 2 min 0 min 289 W/m 16,1 km/h (3 Bft) 93,48 %
21.09.2018 15:10 16,9 C 17,2 C 16,1 C 68 % 1007,3 hPa 0,0 l/m 2 min 0 min 326 W/m 12,9 km/h (3 Bft) 93,62 %
21.09.2018 15:12 16,9 C 17,2 C 16,1 C 67 % 1007,5 hPa 0,0 l/m 2 min 0 min 301 W/m 22,5 km/h (4 Bft) 95,74 %
21.09.2018 15:14 16,9 C 17,2 C 16,1 C 65 % 1007,4 hPa 0,0 l/m 2 min 0 min 303 W/m 22,5 km/h (4 Bft) 97,87 %
21.09.2018 15:16 16,9 C 17,2 C 16,1 C 65 % 1007,5 hPa 0,0 l/m 2 min 0 min 313 W/m 16,1 km/h (3 Bft) 97,87 %
21.09.2018 15:18 17,0 C 17,2 C 16,1 C 64 % 1007,4 hPa 0,0 l/m 2 min 0 min 295 W/m 16,1 km/h (3 Bft) 95,74 %
21.09.2018 15:20 17,0 C 17,2 C 16,1 C 64 % 1007,5 hPa 0,0 l/m 2 min 0 min 284 W/m 19,3 km/h (3 Bft) 93,48 %
21.09.2018 15:22 16,9 C 16,7 C 16,1 C 62 % 1007,4 hPa 0,0 l/m 2 min 0 min 283 W/m 19,3 km/h (3 Bft) 97,87 %
21.09.2018 15:24 16,9 C 16,7 C 15,6 C 61 % 1007,8 hPa 0,0 l/m 2 min 0 min 293 W/m 19,3 km/h (3 Bft) 95,74 %
21.09.2018 15:26 16,9 C 16,7 C 15,6 C 61 % 1007,6 hPa 0,0 l/m 2 min 0 min 292 W/m 19,3 km/h (3 Bft) 97,87 %
21.09.2018 15:28 16,9 C 16,7 C 15,6 C 61 % 1007,5 hPa 0,0 l/m 2 min 0 min 278 W/m 19,3 km/h (3 Bft) 95,74 %
21.09.2018 15:30 16,9 C 16,7 C 15,6 C 61 % 1007,8 hPa 0,0 l/m 0 min 0 min 267 W/m 16,1 km/h (3 Bft) 97,87 %
21.09.2018 15:32 16,9 C 16,7 C 15,6 C 62 % 1007,7 hPa 0,0 l/m 0 min 0 min 239 W/m 19,3 km/h (3 Bft) 97,83 %
21.09.2018 15:34 16,9 C 16,7 C 15,6 C 63 % 1007,7 hPa 0,0 l/m 0 min 0 min 240 W/m 9,7 km/h (2 Bft) 97,87 %
21.09.2018 15:36 16,9 C 16,7 C 15,6 C 62 % 1007,9 hPa 0,0 l/m 0 min 0 min 242 W/m 12,9 km/h (3 Bft) 97,87 %
21.09.2018 15:38 16,8 C 16,7 C 15,6 C 62 % 1007,9 hPa 0,0 l/m 0 min 0 min 239 W/m 19,3 km/h (3 Bft) 97,87 %
21.09.2018 15:40 16,8 C 16,7 C 15,6 C 61 % 1007,8 hPa 0,0 l/m 0 min 0 min 250 W/m 25,7 km/h (4 Bft) 97,87 %
21.09.2018 15:42 16,8 C 16,7 C 15,6 C 61 % 1008,0 hPa 0,0 l/m 0 min 0 min 246 W/m 22,5 km/h (4 Bft) 98,11 %
21.09.2018 15:44 16,7 C 16,7 C 15,6 C 61 % 1007,9 hPa 0,0 l/m 2 min 0 min 608 W/m 19,3 km/h (3 Bft) 95,74 %
21.09.2018 15:46 16,8 C 16,7 C 15,6 C 62 % 1008,0 hPa 0,0 l/m 2 min 0 min 417 W/m 25,7 km/h (4 Bft) 100,00 %
21.09.2018 15:48 16,8 C 16,7 C 15,6 C 63 % 1007,9 hPa 0,0 l/m 2 min 0 min 467 W/m 16,1 km/h (3 Bft) 93,62 %
21.09.2018 15:50 16,8 C 17,2 C 16,1 C 64 % 1008,0 hPa 0,0 l/m 2 min 0 min 540 W/m 22,5 km/h (4 Bft) 97,87 %
21.09.2018 15:52 16,9 C 17,2 C 16,1 C 63 % 1008,0 hPa 0,0 l/m 2 min 0 min 569 W/m 16,1 km/h (3 Bft) 97,87 %
21.09.2018 15:54 16,9 C 17,2 C 16,1 C 64 % 1008,0 hPa 0,0 l/m 2 min 0 min 561 W/m 16,1 km/h (3 Bft) 95,65 %
21.09.2018 15:56 16,9 C 17,2 C 16,1 C 64 % 1008,0 hPa 0,0 l/m 2 min 0 min 569 W/m 16,1 km/h (3 Bft) 95,74 %
21.09.2018 15:58 17,0 C 17,8 C 16,1 C 64 % 1008,1 hPa 0,0 l/m 2 min 0 min 564 W/m 22,5 km/h (4 Bft) 97,87 %
21.09.2018 16:00 17,1 C 17,2 C 16,1 C 63 % 1008,0 hPa 0,0 l/m 2 min 0 min 561 W/m 16,1 km/h (3 Bft) 97,87 %
21.09.2018 16:02 17,2 C 17,2 C 16,1 C 64 % 1008,0 hPa 0,0 l/m 2 min 0 min 546 W/m 16,1 km/h (3 Bft) 93,62 %
21.09.2018 16:04 17,2 C 17,2 C 16,1 C 65 % 1008,1 hPa 0,0 l/m 2 min 0 min 555 W/m 16,1 km/h (3 Bft) 97,87 %
21.09.2018 16:06 17,3 C 17,2 C 16,1 C 64 % 1008,0 hPa 0,0 l/m 2 min 0 min 562 W/m 22,5 km/h (4 Bft) 95,65 %
21.09.2018 16:08 17,3 C 17,2 C 16,1 C 63 % 1008,1 hPa 0,0 l/m 2 min 0 min 566 W/m 29,0 km/h (5 Bft) 97,87 %
21.09.2018 16:10 17,3 C 17,2 C 16,1 C 63 % 1008,1 hPa 0,0 l/m 2 min 0 min 568 W/m 29,0 km/h (5 Bft) 97,87 %
21.09.2018 16:12 17,4 C 17,2 C 16,1 C 62 % 1008,2 hPa 0,0 l/m 2 min 0 min 568 W/m 16,1 km/h (3 Bft) 97,87 %
21.09.2018 16:14 17,3 C 17,2 C 16,1 C 61 % 1008,1 hPa 0,0 l/m 0 min 0 min 215 W/m 22,5 km/h (4 Bft) 97,87 %
21.09.2018 16:16 17,4 C 17,8 C 16,1 C 63 % 1008,2 hPa 0,0 l/m 2 min 0 min 606 W/m 19,3 km/h (3 Bft) 97,87 %
21.09.2018 16:18 17,4 C 17,2 C 16,1 C 63 % 1008,2 hPa 0,0 l/m 2 min 0 min 584 W/m 12,9 km/h (3 Bft) 97,83 %
21.09.2018 16:20 17,4 C 18,3 C 16,1 C 63 % 1008,2 hPa 0,0 l/m 0 min 0 min 186 W/m 9,7 km/h (2 Bft) 97,87 %
21.09.2018 16:22 17,4 C 17,8 C 16,1 C 63 % 1008,1 hPa 0,0 l/m 0 min 0 min 186 W/m 16,1 km/h (3 Bft) 97,87 %
21.09.2018 16:24 17,4 C 18,9 C 16,1 C 64 % 1008,2 hPa 0,0 l/m 0 min 0 min 185 W/m 9,7 km/h (2 Bft) 95,74 %
21.09.2018 16:26 17,5 C 18,9 C 16,7 C 64 % 1008,3 hPa 0,0 l/m 0 min 0 min 194 W/m 16,1 km/h (3 Bft) 97,87 %
21.09.2018 16:28 17,6 C 18,9 C 16,7 C 63 % 1008,4 hPa 0,0 l/m 2 min 0 min 333 W/m 19,3 km/h (3 Bft) 97,87 %
21.09.2018 16:30 17,6 C 18,9 C 16,7 C 62 % 1008,4 hPa 0,0 l/m 2 min 0 min 524 W/m 16,1 km/h (3 Bft) 97,83 %
21.09.2018 16:32 17,6 C 18,9 C 16,1 C 61 % 1008,4 hPa 0,0 l/m 2 min 0 min 492 W/m 22,5 km/h (4 Bft) 95,83 %
21.09.2018 16:34 17,6 C 18,3 C 16,1 C 60 % 1008,5 hPa 0,0 l/m 2 min 0 min 492 W/m 22,5 km/h (4 Bft) 97,87 %
21.09.2018 16:36 17,6 C 16,7 C 16,1 C 61 % 1008,5 hPa 0,0 l/m 0 min 0 min 150 W/m 16,1 km/h (3 Bft) 97,87 %
21.09.2018 16:38 17,5 C 16,7 C 15,6 C 61 % 1008,5 hPa 0,0 l/m 0 min 0 min 82 W/m 32,2 km/h (5 Bft) 97,87 %
21.09.2018 16:40 17,4 C 16,1 C 15,6 C 60 % 1008,7 hPa 0,0 l/m 0 min 0 min 101 W/m 16,1 km/h (3 Bft) 97,87 %
21.09.2018 16:42 17,3 C 16,1 C 15,0 C 61 % 1008,6 hPa 0,0 l/m 0 min 2 min 101 W/m 16,1 km/h (3 Bft) 97,83 %
21.09.2018 16:44 17,3 C 16,1 C 15,0 C 62 % 1008,5 hPa 0,0 l/m 0 min 2 min 97 W/m 12,9 km/h (3 Bft) 100,00 %
21.09.2018 16:46 17,2 C 16,7 C 15,0 C 63 % 1008,5 hPa 0,0 l/m 0 min 2 min 114 W/m 12,9 km/h (3 Bft) 100,00 %
21.09.2018 16:48 17,1 C 17,2 C 15,6 C 63 % 1008,5 hPa 0,0 l/m 2 min 2 min 472 W/m 12,9 km/h (3 Bft) 97,87 %
21.09.2018 16:50 17,1 C 17,8 C 15,6 C 64 % 1008,5 hPa 0,0 l/m 2 min 0 min 517 W/m 16,1 km/h (3 Bft) 97,87 %
21.09.2018 16:52 17,1 C 18,9 C 15,6 C 64 % 1008,6 hPa 0,0 l/m 2 min 0 min 525 W/m 12,9 km/h (3 Bft) 100,00 %
21.09.2018 16:54 17,1 C 18,9 C 15,6 C 65 % 1008,7 hPa 0,0 l/m 2 min 0 min 525 W/m 19,3 km/h (3 Bft) 95,74 %
21.09.2018 16:56 17,1 C 18,9 C 16,1 C 64 % 1008,8 hPa 0,0 l/m 2 min 0 min 529 W/m 19,3 km/h (3 Bft) 97,87 %
21.09.2018 16:58 17,2 C 18,9 C 16,1 C 64 % 1008,7 hPa 0,0 l/m 2 min 0 min 518 W/m 19,3 km/h (3 Bft) 97,87 %
21.09.2018 17:00 17,2 C 18,3 C 16,1 C 64 % 1008,7 hPa 0,0 l/m 2 min 0 min 466 W/m 12,9 km/h (3 Bft) 100,00 %
21.09.2018 17:02 17,3 C 18,3 C 16,1 C 64 % 1008,7 hPa 0,0 l/m 2 min 0 min 447 W/m 32,2 km/h (5 Bft) 97,87 %
21.09.2018 17:04 17,3 C 18,3 C 16,1 C 64 % 1008,7 hPa 0,0 l/m 2 min 0 min 426 W/m 22,5 km/h (4 Bft) 97,83 %
21.09.2018 17:06 17,3 C 17,2 C 16,1 C 62 % 1008,6 hPa 0,0 l/m 2 min 0 min 224 W/m 22,5 km/h (4 Bft) 97,73 %
21.09.2018 17:08 17,2 C 16,7 C 15,6 C 60 % 1008,7 hPa 0,0 l/m 0 min 0 min 67 W/m 25,7 km/h (4 Bft) 97,87 %
21.09.2018 17:10 17,2 C 16,1 C 15,6 C 60 % 1008,6 hPa 0,0 l/m 0 min 0 min 92 W/m 25,7 km/h (4 Bft) 95,74 %
21.09.2018 17:12 17,1 C 16,1 C 15,6 C 60 % 1008,6 hPa 0,0 l/m 0 min 0 min 81 W/m 19,3 km/h (3 Bft) 97,87 %
21.09.2018 17:14 17,1 C 16,1 C 15,6 C 60 % 1008,6 hPa 0,0 l/m 0 min 0 min 91 W/m 16,1 km/h (3 Bft) 97,87 %
21.09.2018 17:16 17,0 C 16,7 C 15,6 C 61 % 1008,6 hPa 0,0 l/m 0 min 0 min 143 W/m 12,9 km/h (3 Bft) 97,83 %
21.09.2018 17:18 16,9 C 17,2 C 15,6 C 60 % 1008,7 hPa 0,0 l/m 2 min 0 min 398 W/m 19,3 km/h (3 Bft) 97,87 %
21.09.2018 17:20 16,9 C 17,2 C 15,6 C 60 % 1008,6 hPa 0,0 l/m 2 min 0 min 216 W/m 9,7 km/h (2 Bft) 97,87 %
21.09.2018 17:22 16,9 C 16,7 C 15,6 C 60 % 1008,6 hPa 0,0 l/m 2 min 0 min 270 W/m 22,5 km/h (4 Bft) 97,87 %
21.09.2018 17:24 16,9 C 17,2 C 15,6 C 60 % 1008,7 hPa 0,0 l/m 2 min 0 min 249 W/m 22,5 km/h (4 Bft) 97,87 %
21.09.2018 17:26 16,9 C 17,2 C 15,6 C 59 % 1008,8 hPa 0,0 l/m 2 min 0 min 376 W/m 16,1 km/h (3 Bft) 97,83 %
21.09.2018 17:28 16,9 C 17,8 C 15,6 C 59 % 1008,8 hPa 0,0 l/m 2 min 0 min 386 W/m 19,3 km/h (3 Bft) 91,49 %
21.09.2018 17:30 16,9 C 17,8 C 16,1 C 59 % 1008,8 hPa 0,0 l/m 2 min 0 min 389 W/m 19,3 km/h (3 Bft) 97,87 %
21.09.2018 17:32 17,0 C 17,8 C 16,1 C 59 % 1008,8 hPa 0,0 l/m 2 min 0 min 360 W/m 22,5 km/h (4 Bft) 97,56 %
21.09.2018 17:34 17,0 C 17,8 C 16,1 C 59 % 1008,8 hPa 0,0 l/m 2 min 0 min 345 W/m 22,5 km/h (4 Bft) 97,87 %
21.09.2018 17:36 17,1 C 17,8 C 16,1 C 59 % 1009,0 hPa 0,0 l/m 2 min 0 min 350 W/m 22,5 km/h (4 Bft) 97,87 %
21.09.2018 17:38 17,1 C 16,7 C 16,1 C 56 % 1008,9 hPa 0,0 l/m 2 min 0 min 343 W/m 29,0 km/h (5 Bft) 97,87 %
21.09.2018 17:40 17,0 C 16,7 C 15,6 C 54 % 1008,9 hPa 0,0 l/m 2 min 0 min 226 W/m 19,3 km/h (3 Bft) 97,87 %
21.09.2018 17:42 17,0 C 16,1 C 15,6 C 53 % 1009,0 hPa 0,0 l/m 0 min 0 min 126 W/m 22,5 km/h (4 Bft) 100,00 %
21.09.2018 17:44 16,9 C 16,1 C 15,6 C 54 % 1009,0 hPa 0,0 l/m 2 min 0 min 145 W/m 22,5 km/h (4 Bft) 97,87 %
21.09.2018 17:46 16,9 C 16,1 C 15,6 C 54 % 1009,1 hPa 0,0 l/m 0 min 0 min 71 W/m 22,5 km/h (4 Bft) 100,00 %
21.09.2018 17:48 16,9 C 16,1 C 15,6 C 54 % 1009,0 hPa 0,0 l/m 2 min 0 min 210 W/m 12,9 km/h (3 Bft) 100,00 %
21.09.2018 17:50 16,9 C 16,1 C 15,6 C 54 % 1009,0 hPa 0,0 l/m 2 min 0 min 311 W/m 22,5 km/h (4 Bft) 100,00 %
21.09.2018 17:52 16,8 C 16,1 C 15,6 C 54 % 1009,0 hPa 0,0 l/m 2 min 0 min 281 W/m 25,7 km/h (4 Bft) 95,74 %
21.09.2018 17:54 16,8 C 16,1 C 15,6 C 54 % 1009,0 hPa 0,0 l/m 2 min 0 min 175 W/m 19,3 km/h (3 Bft) 100,00 %
21.09.2018 17:56 16,8 C 16,1 C 15,6 C 54 % 1009,0 hPa 0,0 l/m 0 min 0 min 83 W/m 25,7 km/h (4 Bft) 100,00 %
21.09.2018 17:58 16,8 C 16,1 C 15,6 C 54 % 1009,1 hPa 0,0 l/m 0 min 0 min 53 W/m 16,1 km/h (3 Bft) 100,00 %
21.09.2018 18:00 16,7 C 16,1 C 15,6 C 54 % 1009,1 hPa 0,0 l/m 2 min 0 min 200 W/m 25,7 km/h (4 Bft) 100,00 %
21.09.2018 18:02 16,7 C 16,1 C 15,6 C 54 % 1009,1 hPa 0,0 l/m 2 min 0 min 116 W/m 22,5 km/h (4 Bft) 95,74 %
21.09.2018 18:04 16,7 C 16,1 C 15,6 C 54 % 1009,2 hPa 0,0 l/m 2 min 0 min 260 W/m 29,0 km/h (5 Bft) 97,87 %
21.09.2018 18:06 16,6 C 16,1 C 15,6 C 53 % 1009,2 hPa 0,0 l/m 2 min 0 min 244 W/m 19,3 km/h (3 Bft) 97,83 %
21.09.2018 18:08 16,6 C 16,1 C 15,6 C 54 % 1009,2 hPa 0,0 l/m 2 min 0 min 226 W/m 12,9 km/h (3 Bft) 97,87 %
21.09.2018 18:10 16,6 C 16,1 C 15,6 C 54 % 1009,1 hPa 0,0 l/m 2 min 0 min 223 W/m 22,5 km/h (4 Bft) 97,87 %
21.09.2018 18:12 16,6 C 16,1 C 15,6 C 54 % 1009,2 hPa 0,0 l/m 2 min 0 min 217 W/m 12,9 km/h (3 Bft) 97,87 %
21.09.2018 18:14 16,6 C 16,1 C 15,6 C 54 % 1009,2 hPa 0,0 l/m 2 min 0 min 211 W/m 16,1 km/h (3 Bft) 97,87 %
21.09.2018 18:16 16,6 C 16,1 C 15,6 C 54 % 1009,1 hPa 0,0 l/m 2 min 0 min 196 W/m 16,1 km/h (3 Bft) 100,00 %
21.09.2018 18:18 16,6 C 15,6 C 15,6 C 54 % 1009,2 hPa 0,0 l/m 2 min 0 min 135 W/m 12,9 km/h (3 Bft) 100,00 %
21.09.2018 18:20 16,6 C 15,6 C 15,6 C 54 % 1009,1 hPa 0,0 l/m 2 min 0 min 173 W/m 12,9 km/h (3 Bft) 97,87 %
21.09.2018 18:22 16,6 C 15,6 C 15,6 C 53 % 1009,3 hPa 0,0 l/m 2 min 0 min 190 W/m 16,1 km/h (3 Bft) 97,87 %
21.09.2018 18:24 16,5 C 16,1 C 15,6 C 54 % 1009,3 hPa 0,0 l/m 2 min 0 min 184 W/m 22,5 km/h (4 Bft) 97,87 %
21.09.2018 18:26 16,5 C 16,1 C 15,6 C 54 % 1009,2 hPa 0,0 l/m 2 min 0 min 161 W/m 35,4 km/h (5 Bft) 97,87 %
21.09.2018 18:28 16,5 C 15,6 C 15,6 C 53 % 1009,2 hPa 0,0 l/m 2 min 0 min 170 W/m 19,3 km/h (3 Bft) 97,83 %
21.09.2018 18:30 16,5 C 15,6 C 15,6 C 54 % 1009,2 hPa 0,0 l/m 2 min 0 min 164 W/m 12,9 km/h (3 Bft) 95,74 %
21.09.2018 18:32 16,4 C 15,6 C 15,0 C 54 % 1009,1 hPa 0,0 l/m 2 min 0 min 157 W/m 25,7 km/h (4 Bft) 93,62 %
21.09.2018 18:34 16,4 C 15,6 C 15,0 C 54 % 1009,1 hPa 0,0 l/m 2 min 0 min 111 W/m 9,7 km/h (2 Bft) 97,87 %
21.09.2018 18:36 16,4 C 15,6 C 15,0 C 54 % 1009,2 hPa 0,0 l/m 2 min 0 min 101 W/m 19,3 km/h (3 Bft) 97,87 %
21.09.2018 18:38 16,4 C 15,6 C 15,0 C 54 % 1009,2 hPa 0,0 l/m 2 min 0 min 120 W/m 35,4 km/h (5 Bft) 95,74 %
21.09.2018 18:40 16,3 C 15,6 C 15,0 C 54 % 1009,4 hPa 0,0 l/m 2 min 0 min 121 W/m 16,1 km/h (3 Bft) 95,65 %
21.09.2018 18:42 16,3 C 15,6 C 15,0 C 55 % 1009,3 hPa 0,0 l/m 0 min 0 min 60 W/m 12,9 km/h (3 Bft) 97,87 %
21.09.2018 18:44 16,3 C 15,6 C 15,0 C 55 % 1009,3 hPa 0,0 l/m 2 min 0 min 117 W/m 35,4 km/h (5 Bft) 97,87 %
21.09.2018 18:46 16,3 C 15,6 C 15,0 C 54 % 1009,3 hPa 0,0 l/m 2 min 0 min 108 W/m 25,7 km/h (4 Bft) 97,92 %
21.09.2018 18:48 16,2 C 15,6 C 15,0 C 54 % 1009,4 hPa 0,0 l/m 2 min 0 min 60 W/m 9,7 km/h (2 Bft) 95,74 %
21.09.2018 18:50 16,2 C 15,6 C 15,0 C 54 % 1009,4 hPa 0,0 l/m 0 min 0 min 33 W/m 25,7 km/h (4 Bft) 95,74 %
21.09.2018 18:52 16,2 C 15,6 C 15,0 C 55 % 1009,4 hPa 0,0 l/m 0 min 0 min 31 W/m 12,9 km/h (3 Bft) 93,48 %
21.09.2018 18:54 16,2 C 15,6 C 15,0 C 55 % 1009,3 hPa 0,0 l/m 0 min 0 min 29 W/m 12,9 km/h (3 Bft) 95,74 %
21.09.2018 18:56 16,1 C 15,6 C 15,0 C 55 % 1009,3 hPa 0,0 l/m 0 min 0 min 27 W/m 22,5 km/h (4 Bft) 97,87 %
21.09.2018 18:58 16,1 C 15,6 C 15,0 C 54 % 1009,5 hPa 0,0 l/m 0 min 0 min 26 W/m 19,3 km/h (3 Bft) 95,74 %
21.09.2018 19:00 16,1 C 15,0 C 15,0 C 55 % 1009,6 hPa 0,0 l/m 0 min 0 min 25 W/m 12,9 km/h (3 Bft) 95,74 %
21.09.2018 19:02 16,1 C 15,0 C 15,0 C 55 % 1009,5 hPa 0,0 l/m 0 min 0 min 24 W/m 25,7 km/h (4 Bft) 94,34 %
21.09.2018 19:04 16,1 C 15,0 C 15,0 C 56 % 1009,6 hPa 0,0 l/m 0 min 0 min 23 W/m 12,9 km/h (3 Bft) 97,87 %
21.09.2018 19:06 16,0 C 15,0 C 15,0 C 56 % 1009,5 hPa 0,0 l/m 0 min 0 min 21 W/m 29,0 km/h (5 Bft) 97,87 %
21.09.2018 19:08 15,9 C 15,0 C 15,0 C 56 % 1009,5 hPa 0,0 l/m 0 min 0 min 19 W/m 9,7 km/h (2 Bft) 97,87 %
21.09.2018 19:10 15,9 C 15,0 C 15,0 C 56 % 1009,7 hPa 0,0 l/m 0 min 0 min 18 W/m 9,7 km/h (2 Bft) 95,74 %
21.09.2018 19:12 15,9 C 15,0 C 14,4 C 56 % 1009,5 hPa 0,0 l/m 0 min 0 min 16 W/m 12,9 km/h (3 Bft) 97,83 %
21.09.2018 19:14 15,9 C 14,4 C 14,4 C 57 % 1009,5 hPa 0,0 l/m 0 min 0 min 14 W/m 12,9 km/h (3 Bft) 97,87 %
21.09.2018 19:16 15,8 C 14,4 C 14,4 C 57 % 1009,6 hPa 0,0 l/m 0 min 0 min 13 W/m 12,9 km/h (3 Bft) 97,87 %
21.09.2018 19:18 15,8 C 14,4 C 14,4 C 57 % 1009,6 hPa 0,0 l/m 0 min 0 min 12 W/m 6,4 km/h (2 Bft) 97,56 %
21.09.2018 19:20 15,8 C 14,4 C 14,4 C 57 % 1009,6 hPa 0,0 l/m 0 min 0 min 11 W/m 16,1 km/h (3 Bft) 97,87 %
21.09.2018 19:22 15,7 C 14,4 C 14,4 C 57 % 1009,7 hPa 0,0 l/m 0 min 0 min 11 W/m 12,9 km/h (3 Bft) 97,87 %
21.09.2018 19:24 15,7 C 14,4 C 14,4 C 58 % 1009,7 hPa 0,0 l/m 0 min 0 min 9 W/m 6,4 km/h (2 Bft) 97,87 %
21.09.2018 19:26 15,6 C 14,4 C 14,4 C 58 % 1009,7 hPa 0,0 l/m 0 min 0 min 9 W/m 9,7 km/h (2 Bft) 97,83 %
21.09.2018 19:28 15,6 C 14,4 C 14,4 C 57 % 1009,7 hPa 0,0 l/m 0 min 0 min 8 W/m 12,9 km/h (3 Bft) 97,87 %
21.09.2018 19:30 15,6 C 14,4 C 14,4 C 58 % 1009,7 hPa 0,0 l/m 0 min 0 min 7 W/m 6,4 km/h (2 Bft) 97,87 %
21.09.2018 19:32 15,5 C 14,4 C 14,4 C 58 % 1009,8 hPa 0,0 l/m 0 min 0 min 7 W/m 9,7 km/h (2 Bft) 98,00 %
21.09.2018 19:34 15,4 C 14,4 C 14,4 C 58 % 1009,9 hPa 0,0 l/m 0 min 0 min 6 W/m 6,4 km/h (2 Bft) 95,74 %
21.09.2018 19:36 15,4 C 14,4 C 14,4 C 58 % 1009,8 hPa 0,0 l/m 0 min 0 min 5 W/m 12,9 km/h (3 Bft) 95,65 %
21.09.2018 19:38 15,4 C 13,9 C 14,4 C 59 % 1009,9 hPa 0,0 l/m 0 min 0 min 5 W/m 12,9 km/h (3 Bft) 95,74 %
21.09.2018 19:40 15,3 C 14,4 C 14,4 C 58 % 1010,0 hPa 0,0 l/m 0 min 0 min 4 W/m 9,7 km/h (2 Bft) 95,74 %
21.09.2018 19:42 15,3 C 13,9 C 13,9 C 59 % 1009,9 hPa 0,0 l/m 0 min 0 min 0 W/m 9,7 km/h (2 Bft) 95,74 %
21.09.2018 19:44 15,2 C 13,9 C 13,9 C 59 % 1010,0 hPa 0,0 l/m 0 min 0 min 0 W/m 9,7 km/h (2 Bft) 95,74 %
21.09.2018 19:46 15,2 C 13,9 C 13,9 C 59 % 1010,0 hPa 0,0 l/m 0 min 0 min 0 W/m 16,1 km/h (3 Bft) 93,62 %
21.09.2018 19:48 15,2 C 13,9 C 13,9 C 59 % 1010,0 hPa 0,0 l/m 0 min 0 min 0 W/m 6,4 km/h (2 Bft) 95,74 %
21.09.2018 19:50 15,1 C 13,9 C 13,9 C 59 % 1010,1 hPa 0,0 l/m 0 min 0 min 0 W/m 9,7 km/h (2 Bft) 95,74 %
21.09.2018 19:52 15,1 C 14,4 C 14,4 C 59 % 1010,1 hPa 0,0 l/m 0 min 0 min 0 W/m 19,3 km/h (3 Bft) 97,87 %
21.09.2018 19:54 15,1 C 14,4 C 14,4 C 59 % 1010,3 hPa 0,0 l/m 0 min 0 min 0 W/m 16,1 km/h (3 Bft) 95,74 %
21.09.2018 19:56 15,1 C 14,4 C 14,4 C 59 % 1010,3 hPa 0,0 l/m 0 min 0 min 0 W/m 16,1 km/h (3 Bft) 95,74 %
21.09.2018 19:58 15,1 C 14,4 C 14,4 C 59 % 1010,3 hPa 0,0 l/m 0 min 0 min 0 W/m 19,3 km/h (3 Bft) 95,74 %
21.09.2018 20:00 15,1 C 14,4 C 14,4 C 59 % 1010,3 hPa 0,0 l/m 0 min 0 min 0 W/m 12,9 km/h (3 Bft) 97,83 %
21.09.2018 20:02 15,1 C 14,4 C 14,4 C 59 % 1010,3 hPa 0,0 l/m 0 min 0 min 0 W/m 16,1 km/h (3 Bft) 93,62 %
21.09.2018 20:04 15,1 C 14,4 C 14,4 C 59 % 1010,4 hPa 0,0 l/m 0 min 0 min 0 W/m 12,9 km/h (3 Bft) 95,74 %
21.09.2018 20:06 15,1 C 14,4 C 14,4 C 59 % 1010,4 hPa 0,0 l/m 0 min 0 min 0 W/m 9,7 km/h (2 Bft) 98,15 %
21.09.2018 20:08 15,1 C 14,4 C 14,4 C 60 % 1010,5 hPa 0,0 l/m 0 min 0 min 0 W/m 19,3 km/h (3 Bft) 97,83 %
21.09.2018 20:10 15,1 C 14,4 C 14,4 C 59 % 1010,5 hPa 0,0 l/m 0 min 0 min 0 W/m 9,7 km/h (2 Bft) 97,87 %
21.09.2018 20:12 15,2 C 14,4 C 14,4 C 60 % 1010,5 hPa 0,0 l/m 0 min 0 min 0 W/m 12,9 km/h (3 Bft) 95,74 %
21.09.2018 20:14 15,2 C 14,4 C 14,4 C 60 % 1010,4 hPa 0,0 l/m 0 min 0 min 0 W/m 19,3 km/h (3 Bft) 97,87 %
21.09.2018 20:16 15,2 C 14,4 C 14,4 C 60 % 1010,4 hPa 0,0 l/m 0 min 0 min 0 W/m 9,7 km/h (2 Bft) 97,56 %
21.09.2018 20:18 15,2 C 14,4 C 14,4 C 60 % 1010,5 hPa 0,0 l/m 0 min 0 min 0 W/m 12,9 km/h (3 Bft) 97,87 %
21.09.2018 20:20 15,2 C 14,4 C 14,4 C 60 % 1010,5 hPa 0,0 l/m 0 min 0 min 0 W/m 12,9 km/h (3 Bft) 95,74 %
21.09.2018 20:22 15,2 C 14,4 C 14,4 C 60 % 1010,5 hPa 0,0 l/m 0 min 0 min 0 W/m 16,1 km/h (3 Bft) 97,87 %
21.09.2018 20:24 15,2 C 14,4 C 13,9 C 61 % 1010,5 hPa 0,0 l/m 0 min 0 min 0 W/m 16,1 km/h (3 Bft) 97,83 %
21.09.2018 20:26 15,2 C 14,4 C 13,9 C 61 % 1010,5 hPa 0,0 l/m 0 min 0 min 0 W/m 9,7 km/h (2 Bft) 97,87 %
21.09.2018 20:28 15,1 C 13,9 C 13,9 C 62 % 1010,5 hPa 0,0 l/m 0 min 0 min 0 W/m 12,9 km/h (3 Bft) 100,00 %
21.09.2018 20:30 15,1 C 14,4 C 13,9 C 62 % 1010,5 hPa 0,0 l/m 0 min 0 min 0 W/m 22,5 km/h (4 Bft) 100,00 %
21.09.2018 20:32 15,1 C 13,9 C 13,9 C 62 % 1010,5 hPa 0,0 l/m 0 min 0 min 0 W/m 9,7 km/h (2 Bft) 100,00 %
21.09.2018 20:34 15,1 C 13,9 C 13,9 C 62 % 1010,6 hPa 0,0 l/m 0 min 0 min 0 W/m 9,7 km/h (2 Bft) 97,83 %
21.09.2018 20:36 15,1 C 13,9 C 13,9 C 62 % 1010,7 hPa 0,0 l/m 0 min 0 min 0 W/m 25,7 km/h (4 Bft) 100,00 %
21.09.2018 20:38 15,0 C 14,4 C 13,9 C 62 % 1010,7 hPa 0,0 l/m 0 min 0 min 0 W/m 22,5 km/h (4 Bft) 97,87 %
21.09.2018 20:40 15,0 C 13,9 C 13,9 C 62 % 1010,8 hPa 0,0 l/m 0 min 0 min 0 W/m 9,7 km/h (2 Bft) 100,00 %
21.09.2018 20:42 15,0 C 13,9 C 13,9 C 63 % 1010,9 hPa 0,0 l/m 0 min 0 min 0 W/m 12,9 km/h (3 Bft) 97,87 %
21.09.2018 20:44 14,9 C 13,9 C 13,9 C 63 % 1011,2 hPa 0,0 l/m 0 min 0 min 0 W/m 16,1 km/h (3 Bft) 100,00 %
21.09.2018 20:46 14,9 C 13,9 C 13,9 C 63 % 1011,0 hPa 0,0 l/m 0 min 0 min 0 W/m 12,9 km/h (3 Bft) 100,00 %
21.09.2018 20:48 14,9 C 13,9 C 13,9 C 62 % 1011,0 hPa 0,0 l/m 0 min 0 min 0 W/m 19,3 km/h (3 Bft) 97,87 %
21.09.2018 20:50 14,9 C 13,9 C 13,9 C 63 % 1011,1 hPa 0,0 l/m 0 min 0 min 0 W/m 12,9 km/h (3 Bft) 100,00 %
21.09.2018 20:52 14,9 C 13,9 C 13,9 C 63 % 1011,2 hPa 0,0 l/m 0 min 0 min 0 W/m 12,9 km/h (3 Bft) 97,87 %
21.09.2018 20:54 14,9 C 13,9 C 13,9 C 63 % 1011,3 hPa 0,0 l/m 0 min 0 min 0 W/m 19,3 km/h (3 Bft) 97,14 %
21.09.2018 20:56 14,8 C 13,9 C 13,9 C 63 % 1011,3 hPa 0,0 l/m 0 min 0 min 0 W/m 16,1 km/h (3 Bft) 95,74 %
21.09.2018 20:58 14,8 C 13,9 C 13,9 C 63 % 1011,3 hPa 0,0 l/m 0 min 0 min 0 W/m 12,9 km/h (3 Bft) 97,87 %
21.09.2018 21:00 14,8 C 13,9 C 13,9 C 63 % 1011,2 hPa 0,0 l/m 0 min 0 min 0 W/m 19,3 km/h (3 Bft) 97,87 %
21.09.2018 21:02 14,8 C 13,9 C 13,9 C 63 % 1011,3 hPa 0,0 l/m 0 min 0 min 0 W/m 9,7 km/h (2 Bft) 96,23 %
21.09.2018 21:04 14,8 C 13,9 C 13,9 C 63 % 1011,4 hPa 0,0 l/m 0 min 0 min 0 W/m 9,7 km/h (2 Bft) 98,00 %
21.09.2018 21:06 14,7 C 13,9 C 13,9 C 63 % 1011,5 hPa 0,0 l/m 0 min 0 min 0 W/m 9,7 km/h (2 Bft) 95,83 %
21.09.2018 21:08 14,7 C 13,9 C 13,9 C 63 % 1011,5 hPa 0,0 l/m 0 min 0 min 0 W/m 9,7 km/h (2 Bft) 97,83 %
21.09.2018 21:10 14,7 C 13,9 C 13,9 C 63 % 1011,7 hPa 0,0 l/m 0 min 0 min 0 W/m 16,1 km/h (3 Bft) 97,87 %
21.09.2018 21:12 14,7 C 13,9 C 13,9 C 63 % 1011,7 hPa 0,0 l/m 0 min 0 min 0 W/m 9,7 km/h (2 Bft) 95,74 %
21.09.2018 21:14 14,7 C 13,9 C 13,9 C 64 % 1011,6 hPa 0,0 l/m 0 min 0 min 0 W/m 16,1 km/h (3 Bft) 97,87 %
21.09.2018 21:16 14,7 C 13,9 C 13,9 C 63 % 1011,7 hPa 0,0 l/m 0 min 0 min 0 W/m 9,7 km/h (2 Bft) 97,87 %
21.09.2018 21:18 14,6 C 13,9 C 13,9 C 64 % 1011,7 hPa 0,0 l/m 0 min 0 min 0 W/m 9,7 km/h (2 Bft) 97,87 %
21.09.2018 21:20 14,6 C 13,9 C 13,9 C 64 % 1011,6 hPa 0,0 l/m 0 min 0 min 0 W/m 9,7 km/h (2 Bft) 95,65 %
21.09.2018 21:22 14,6 C 13,9 C 13,9 C 64 % 1011,8 hPa 0,0 l/m 0 min 0 min 0 W/m 9,7 km/h (2 Bft) 97,87 %
21.09.2018 21:24 14,6 C 13,9 C 13,9 C 64 % 1011,8 hPa 0,0 l/m 0 min 0 min 0 W/m 9,7 km/h (2 Bft) 97,87 %
21.09.2018 21:26 14,6 C 13,9 C 13,9 C 64 % 1011,8 hPa 0,0 l/m 0 min 0 min 0 W/m 19,3 km/h (3 Bft) 97,87 %
21.09.2018 21:28 14,6 C 13,9 C 13,9 C 64 % 1011,8 hPa 0,0 l/m 0 min 0 min 0 W/m 16,1 km/h (3 Bft) 97,87 %
21.09.2018 21:30 14,6 C 13,9 C 13,9 C 64 % 1011,9 hPa 0,0 l/m 0 min 0 min 0 W/m 9,7 km/h (2 Bft) 97,87 %
21.09.2018 21:32 14,6 C 13,9 C 13,9 C 65 % 1011,9 hPa 0,0 l/m 0 min 0 min 0 W/m 12,9 km/h (3 Bft) 97,83 %
21.09.2018 21:34 14,5 C 13,9 C 13,9 C 65 % 1012,1 hPa 0,0 l/m 0 min 0 min 0 W/m 19,3 km/h (3 Bft) 97,87 %
21.09.2018 21:36 14,5 C 13,9 C 13,3 C 65 % 1011,9 hPa 0,0 l/m 0 min 0 min 0 W/m 6,4 km/h (2 Bft) 97,92 %
21.09.2018 21:38 14,5 C 13,3 C 13,3 C 65 % 1012,1 hPa 0,0 l/m 0 min 0 min 0 W/m 12,9 km/h (3 Bft) 97,87 %
21.09.2018 21:40 14,4 C 13,3 C 13,3 C 65 % 1012,0 hPa 0,0 l/m 0 min 0 min 0 W/m 12,9 km/h (3 Bft) 100,00 %
21.09.2018 21:42 14,4 C 13,3 C 13,3 C 65 % 1012,0 hPa 0,0 l/m 0 min 0 min 0 W/m 12,9 km/h (3 Bft) 100,00 %
21.09.2018 21:44 14,4 C 13,3 C 13,3 C 65 % 1012,1 hPa 0,0 l/m 0 min 0 min 0 W/m 12,9 km/h (3 Bft) 100,00 %
21.09.2018 21:46 14,4 C 13,3 C 13,3 C 65 % 1012,1 hPa 0,0 l/m 0 min 0 min 0 W/m 9,7 km/h (2 Bft) 100,00 %
21.09.2018 21:48 14,4 C 13,3 C 13,3 C 65 % 1012,1 hPa 0,0 l/m 0 min 0 min 0 W/m 9,7 km/h (2 Bft) 100,00 %
21.09.2018 21:50 14,3 C 13,3 C 13,3 C 65 % 1012,1 hPa 0,0 l/m 0 min 0 min 0 W/m 12,9 km/h (3 Bft) 97,87 %
21.09.2018 21:52 14,3 C 13,3 C 13,3 C 65 % 1012,1 hPa 0,0 l/m 0 min 0 min 0 W/m 16,1 km/h (3 Bft) 100,00 %
21.09.2018 21:54 14,3 C 13,3 C 13,3 C 65 % 1012,1 hPa 0,0 l/m 0 min 0 min 0 W/m 22,5 km/h (4 Bft) 100,00 %
21.09.2018 21:56 14,3 C 13,3 C 13,3 C 65 % 1012,1 hPa 0,0 l/m 0 min 0 min 0 W/m 16,1 km/h (3 Bft) 100,00 %
21.09.2018 21:58 14,2 C 13,3 C 13,3 C 65 % 1012,1 hPa 0,0 l/m 0 min 0 min 0 W/m 9,7 km/h (2 Bft) 100,00 %
21.09.2018 22:00 14,2 C 13,3 C 13,3 C 65 % 1012,1 hPa 0,0 l/m 0 min 0 min 0 W/m 9,7 km/h (2 Bft) 100,00 %
21.09.2018 22:02 14,2 C 13,3 C 13,3 C 65 % 1012,1 hPa 0,0 l/m 0 min 0 min 0 W/m 12,9 km/h (3 Bft) 100,00 %
21.09.2018 22:04 14,2 C 13,3 C 13,3 C 65 % 1012,1 hPa 0,0 l/m 0 min 0 min 0 W/m 19,3 km/h (3 Bft) 100,00 %
21.09.2018 22:06 14,2 C 13,3 C 13,3 C 64 % 1012,1 hPa 0,0 l/m 0 min 0 min 0 W/m 16,1 km/h (3 Bft) 100,00 %
21.09.2018 22:08 14,2 C 13,3 C 13,3 C 65 % 1012,1 hPa 0,0 l/m 0 min 0 min 0 W/m 9,7 km/h (2 Bft) 95,65 %
21.09.2018 22:10 14,2 C 13,3 C 13,3 C 64 % 1012,1 hPa 0,0 l/m 0 min 0 min 0 W/m 9,7 km/h (2 Bft) 100,00 %
21.09.2018 22:12 14,2 C 13,3 C 13,3 C 64 % 1012,2 hPa 0,0 l/m 0 min 0 min 0 W/m 16,1 km/h (3 Bft) 100,00 %
21.09.2018 22:14 14,2 C 13,3 C 13,3 C 64 % 1012,2 hPa 0,0 l/m 0 min 0 min 0 W/m 19,3 km/h (3 Bft) 97,87 %
21.09.2018 22:16 14,2 C 13,3 C 13,3 C 64 % 1012,1 hPa 0,0 l/m 0 min 0 min 0 W/m 16,1 km/h (3 Bft) 97,92 %
21.09.2018 22:18 14,2 C 13,3 C 13,3 C 64 % 1012,2 hPa 0,0 l/m 0 min 0 min 0 W/m 16,1 km/h (3 Bft) 97,87 %
21.09.2018 22:20 14,2 C 13,3 C 13,3 C 64 % 1012,2 hPa 0,0 l/m 0 min 0 min 0 W/m 25,7 km/h (4 Bft) 100,00 %
21.09.2018 22:22 14,2 C 13,3 C 13,3 C 64 % 1012,3 hPa 0,0 l/m 0 min 0 min 0 W/m 16,1 km/h (3 Bft) 100,00 %
21.09.2018 22:24 14,2 C 13,3 C 13,3 C 64 % 1012,3 hPa 0,0 l/m 0 min 0 min 0 W/m 9,7 km/h (2 Bft) 100,00 %
21.09.2018 22:26 14,2 C 13,3 C 13,3 C 65 % 1012,3 hPa 0,0 l/m 0 min 0 min 0 W/m 9,7 km/h (2 Bft) 100,00 %
21.09.2018 22:28 14,2 C 13,3 C 13,3 C 65 % 1012,3 hPa 0,0 l/m 0 min 0 min 0 W/m 22,5 km/h (4 Bft) 100,00 %
21.09.2018 22:30 14,2 C 13,3 C 13,3 C 65 % 1012,3 hPa 0,0 l/m 0 min 0 min 0 W/m 19,3 km/h (3 Bft) 93,48 %
21.09.2018 22:32 14,1 C 13,3 C 13,3 C 65 % 1012,3 hPa 0,0 l/m 0 min 0 min 0 W/m 19,3 km/h (3 Bft) 92,11 %
21.09.2018 22:34 14,1 C 13,3 C 13,3 C 65 % 1012,3 hPa 0,0 l/m 0 min 0 min 0 W/m 41,8 km/h (6 Bft) 97,83 %
21.09.2018 22:36 14,1 C 13,3 C 13,3 C 65 % 1012,4 hPa 0,0 l/m 0 min 0 min 0 W/m 12,9 km/h (3 Bft) 97,87 %
21.09.2018 22:38 14,1 C 13,3 C 13,3 C 65 % 1012,4 hPa 0,0 l/m 0 min 0 min 0 W/m 19,3 km/h (3 Bft) 97,87 %
21.09.2018 22:40 14,1 C 13,3 C 13,3 C 66 % 1012,5 hPa 0,0 l/m 0 min 0 min 0 W/m 19,3 km/h (3 Bft) 97,87 %
21.09.2018 22:42 14,1 C 13,3 C 13,3 C 66 % 1012,6 hPa 0,0 l/m 0 min 0 min 0 W/m 19,3 km/h (3 Bft) 95,74 %
21.09.2018 22:44 14,1 C 13,3 C 13,3 C 66 % 1012,5 hPa 0,0 l/m 0 min 0 min 0 W/m 19,3 km/h (3 Bft) 95,74 %
21.09.2018 22:46 14,1 C 13,3 C 13,3 C 66 % 1012,4 hPa 0,0 l/m 0 min 0 min 0 W/m 16,1 km/h (3 Bft) 93,48 %
21.09.2018 22:48 14,0 C 13,3 C 13,3 C 66 % 1012,6 hPa 0,0 l/m 0 min 0 min 0 W/m 16,1 km/h (3 Bft) 95,74 %
21.09.2018 22:50 14,0 C 13,3 C 12,8 C 66 % 1012,6 hPa 0,0 l/m 0 min 0 min 0 W/m 19,3 km/h (3 Bft) 95,74 %
21.09.2018 22:52 14,0 C 12,8 C 12,8 C 66 % 1012,5 hPa 0,0 l/m 0 min 0 min 0 W/m 9,7 km/h (2 Bft) 95,74 %
21.09.2018 22:54 13,9 C 12,8 C 12,8 C 66 % 1012,6 hPa 0,0 l/m 0 min 0 min 0 W/m 12,9 km/h (3 Bft) 95,74 %
21.09.2018 22:56 13,9 C 12,8 C 12,8 C 67 % 1012,6 hPa 0,0 l/m 0 min 0 min 0 W/m 22,5 km/h (4 Bft) 95,65 %
21.09.2018 22:58 13,9 C 12,8 C 12,8 C 67 % 1012,6 hPa 0,0 l/m 0 min 0 min 0 W/m 12,9 km/h (3 Bft) 93,62 %
21.09.2018 23:00 13,9 C 12,8 C 12,8 C 67 % 1012,5 hPa 0,0 l/m 0 min 0 min 0 W/m 12,9 km/h (3 Bft) 95,74 %
21.09.2018 23:02 13,8 C 12,8 C 12,8 C 67 % 1012,5 hPa 0,0 l/m 0 min 0 min 0 W/m 19,3 km/h (3 Bft) 95,83 %
21.09.2018 23:04 13,8 C 12,8 C 12,8 C 68 % 1012,7 hPa 0,0 l/m 0 min 0 min 0 W/m 12,9 km/h (3 Bft) 95,74 %
21.09.2018 23:06 13,8 C 12,8 C 12,8 C 68 % 1012,6 hPa 0,0 l/m 0 min 0 min 0 W/m 19,3 km/h (3 Bft) 93,62 %
21.09.2018 23:08 13,8 C 12,8 C 12,8 C 68 % 1012,6 hPa 0,0 l/m 0 min 0 min 0 W/m 22,5 km/h (4 Bft) 95,74 %
21.09.2018 23:10 13,8 C 12,8 C 12,8 C 68 % 1012,7 hPa 0,0 l/m 0 min 0 min 0 W/m 19,3 km/h (3 Bft) 95,65 %
21.09.2018 23:12 13,7 C 12,8 C 12,8 C 68 % 1012,7 hPa 0,0 l/m 0 min 0 min 0 W/m 16,1 km/h (3 Bft) 93,62 %
21.09.2018 23:14 13,7 C 12,8 C 12,8 C 69 % 1012,6 hPa 0,0 l/m 0 min 0 min 0 W/m 16,1 km/h (3 Bft) 93,62 %
21.09.2018 23:16 13,7 C 12,8 C 12,8 C 69 % 1012,6 hPa 0,0 l/m 0 min 0 min 0 W/m 25,7 km/h (4 Bft) 91,49 %
21.09.2018 23:18 13,7 C 12,8 C 12,8 C 69 % 1012,7 hPa 0,0 l/m 0 min 0 min 0 W/m 6,4 km/h (2 Bft) 97,87 %
21.09.2018 23:20 13,7 C 12,8 C 12,8 C 69 % 1012,8 hPa 0,0 l/m 0 min 0 min 0 W/m 16,1 km/h (3 Bft) 91,30 %
21.09.2018 23:22 13,7 C 12,8 C 12,8 C 70 % 1012,7 hPa 0,0 l/m 0 min 0 min 0 W/m 22,5 km/h (4 Bft) 93,62 %
21.09.2018 23:24 13,7 C 12,8 C 12,8 C 70 % 1012,8 hPa 0,0 l/m 0 min 0 min 0 W/m 19,3 km/h (3 Bft) 93,62 %
21.09.2018 23:26 13,6 C 12,8 C 12,8 C 70 % 1012,8 hPa 0,0 l/m 0 min 0 min 0 W/m 22,5 km/h (4 Bft) 95,74 %
21.09.2018 23:28 13,6 C 12,8 C 12,8 C 70 % 1012,8 hPa 0,0 l/m 0 min 0 min 0 W/m 19,3 km/h (3 Bft) 97,87 %
21.09.2018 23:30 13,6 C 12,8 C 12,8 C 70 % 1012,8 hPa 0,0 l/m 0 min 0 min 0 W/m 12,9 km/h (3 Bft) 97,87 %
21.09.2018 23:32 13,6 C 12,8 C 12,8 C 70 % 1012,8 hPa 0,0 l/m 0 min 0 min 0 W/m 29,0 km/h (5 Bft) 97,83 %
21.09.2018 23:34 13,6 C 12,8 C 12,8 C 70 % 1013,1 hPa 0,0 l/m 0 min 0 min 0 W/m 19,3 km/h (3 Bft) 91,49 %
21.09.2018 23:36 13,6 C 12,8 C 12,8 C 70 % 1013,0 hPa 0,0 l/m 0 min 0 min 0 W/m 19,3 km/h (3 Bft) 94,34 %
21.09.2018 23:38 13,6 C 12,8 C 12,8 C 71 % 1013,1 hPa 0,0 l/m 0 min 0 min 0 W/m 9,7 km/h (2 Bft) 95,12 %
21.09.2018 23:40 13,6 C 12,8 C 12,8 C 71 % 1013,1 hPa 0,0 l/m 0 min 0 min 0 W/m 19,3 km/h (3 Bft) 93,62 %
21.09.2018 23:42 13,5 C 12,8 C 12,8 C 71 % 1013,2 hPa 0,0 l/m 0 min 0 min 0 W/m 12,9 km/h (3 Bft) 95,74 %
21.09.2018 23:44 13,5 C 12,8 C 12,8 C 71 % 1013,2 hPa 0,0 l/m 0 min 0 min 0 W/m 9,7 km/h (2 Bft) 95,65 %
21.09.2018 23:46 13,5 C 12,8 C 12,8 C 71 % 1013,3 hPa 0,0 l/m 0 min 0 min 0 W/m 16,1 km/h (3 Bft) 97,87 %
21.09.2018 23:48 13,5 C 12,8 C 12,8 C 71 % 1013,3 hPa 0,0 l/m 0 min 0 min 0 W/m 12,9 km/h (3 Bft) 95,74 %
21.09.2018 23:50 13,5 C 12,8 C 12,8 C 72 % 1013,4 hPa 0,0 l/m 0 min 0 min 0 W/m 29,0 km/h (5 Bft) 97,87 %
21.09.2018 23:52 13,4 C 12,8 C 12,8 C 72 % 1013,5 hPa 0,0 l/m 0 min 0 min 0 W/m 19,3 km/h (3 Bft) 97,87 %
21.09.2018 23:54 13,4 C 12,8 C 12,8 C 72 % 1013,4 hPa 0,0 l/m 0 min 0 min 0 W/m 22,5 km/h (4 Bft) 97,87 %
21.09.2018 23:56 13,4 C 12,8 C 12,8 C 72 % 1013,4 hPa 0,0 l/m 0 min 0 min 0 W/m 25,7 km/h (4 Bft) 95,65 %
21.09.2018 23:58 13,4 C 12,8 C 12,8 C 72 % 1013,4 hPa 0,0 l/m 0 min 0 min 0 W/m 12,9 km/h (3 Bft) 97,87 %
_ Min-Zeit 23:52 10:44 11:06 17:42 08:36 - - - - 01:46 04:10
Minimum _ 13,4 C 11,7 C 11,7 C 53 % 1001,4 hPa - - - - 2,3 km/h (1 Bft) 11,11 %
_ Max-Zeit 08:36 08:06 08:14 11:56 23:52 10:26 13:22 09:02 15:44 22:34 00:00
Maximum _ 21,9 C 21,1 C 20,6 C 93 % 1013,5 hPa 0,6 l/m 2 min 2 min 608 W/m 41,8 km/h
O-NO (6 Bft)
100,00 %
Durchschnitt _ 17,4 C 16,7 C 16,2 C 70 % 1006,5 hPa #2,0 l/m #3:10 h #1:54 h 165 W/m 13,2 km/h (3 Bft) 97,41 %
© 2018 W. Hausmann